M I D A S
Marine Information and Data Acquisition System
Tripno 1207 of the Zeeleeuw from 2007-01-26 07:44:56 to 2007-01-26 15:02:39
Back to CruiseResearch ActivitiesStationsMapUnderway DataData graphs

EquipmentUnitsComment
TimeDGPSUTC
LatitudeDGPSDM.mWGS84
LongitudeDGPSDM.mWGS84
TemperatureSBE03/SBE38deg celciusITS90
ConductivitySBE21S/mITS90
SalinitySBE21 Practical Salinity Units
ChlorophylAChelsea fluorimeterg/lCalibrated in Aceton
Missing or incorrect values are displayed as -999
Sea surface data collected by the RV Zeeleeuw from 2007-01-26 07:45:56 to 2007-01-26 15:12:23
                                                                                    Next 1000 lines
Time Latitude Longitude Temperature Conductivity Salinity ChlorophylA
2007-01-26 07:46:06 51°13.598 2°56.092 15.1272 0.005298 0.032368 -2.871232
2007-01-26 07:46:11 51°13.599 2°56.091 15.0843 0.005298 0.032368 -2.871232
2007-01-26 07:46:16 51°13.599 2°56.088 15.1466 0.005298 0.032368 -2.871232
2007-01-26 07:46:21 51°13.6 2°56.085 15.1736 0.005298 0.032368 -2.871232
2007-01-26 07:46:26 51°13.601 2°56.081 15.1676 0.005298 0.032368 -2.871232
2007-01-26 07:46:31 51°13.602 2°56.077 15.1139 0.005298 0.032368 -2.871232
2007-01-26 07:46:36 51°13.604 2°56.071 15.1927 0.005298 0.032368 -2.871232
2007-01-26 07:46:41 51°13.606 2°56.065 15.1873 0.005298 0.032368 -2.871232
2007-01-26 07:46:46 51°13.608 2°56.058 15.1897 0.005298 0.032368 -2.871232
2007-01-26 07:46:51 51°13.61 2°56.05 15.2506 0.005298 0.032368 -2.871232
2007-01-26 07:46:56 51°13.613 2°56.042 15.2025 0.005298 0.032368 -2.871232
2007-01-26 07:47:01 51°13.615 2°56.033 15.2173 0.005298 0.032368 -2.871232
2007-01-26 07:47:06 51°13.618 2°56.024 15.2545 0.005298 0.032368 -2.871232
2007-01-26 07:47:11 51°13.62 2°56.015 15.2779 0.005298 0.032368 -2.871232
2007-01-26 07:47:16 51°13.623 2°56.005 15.2717 0.005298 0.032368 -2.871232
2007-01-26 07:47:21 51°13.626 2°55.996 15.3033 0.005298 0.032368 -2.871232
2007-01-26 07:47:26 51°13.628 2°55.986 15.3057 0.005298 0.032368 -2.871232
2007-01-26 07:47:31 51°13.631 2°55.977 15.2873 0.005298 0.032368 -2.871232
2007-01-26 07:47:36 51°13.633 2°55.968 15.2924 0.005298 0.032368 -2.871232
2007-01-26 07:47:41 51°13.636 2°55.958 15.2717 0.005298 0.032368 -2.871232
2007-01-26 07:47:46 51°13.639 2°55.949 15.2903 0.005298 0.032368 -2.871232
2007-01-26 07:47:51 51°13.642 2°55.94 15.3262 0.005298 0.032368 -2.871232
2007-01-26 07:47:56 51°13.644 2°55.931 15.3488 0.005298 0.032368 -2.871232
2007-01-26 07:48:01 51°13.647 2°55.922 15.3301 0.005298 0.032368 -2.871232
2007-01-26 07:48:06 51°13.65 2°55.913 15.3439 0.005298 0.032368 -2.871232
2007-01-26 07:48:11 51°13.653 2°55.905 15.2948 0.005298 0.032368 -2.871232
2007-01-26 07:48:16 51°13.656 2°55.897 15.3032 0.005298 0.032368 -2.871232
2007-01-26 07:48:21 51°13.658 2°55.889 15.2923 0.005298 0.032368 -2.871232
2007-01-26 07:48:26 51°13.66 2°55.881 15.2885 0.005298 0.032368 -2.871232
2007-01-26 07:48:31 51°13.663 2°55.874 15.2916 0.005298 0.032368 -2.871232
2007-01-26 07:48:36 51°13.665 2°55.866 15.3056 0.005298 0.032368 -2.871232
2007-01-26 07:48:41 51°13.668 2°55.859 15.3175 0.005298 0.032368 -2.871232
2007-01-26 07:48:46 51°13.67 2°55.852 15.3199 0.005298 0.032368 -2.871232
2007-01-26 07:48:51 51°13.672 2°55.845 15.3029 0.005298 0.032368 -2.871232
2007-01-26 07:48:56 51°13.674 2°55.838 15.2925 0.005298 0.032368 -2.871232
2007-01-26 07:49:01 51°13.676 2°55.831 15.2647 0.005298 0.032368 -2.871232
2007-01-26 07:49:06 51°13.677 2°55.824 15.2689 0.005298 0.032368 -2.871232
2007-01-26 07:49:11 51°13.679 2°55.818 15.2799 0.005298 0.032368 -2.871232
2007-01-26 07:49:16 51°13.68 2°55.812 15.2924 0.005298 0.032368 -2.871232
2007-01-26 07:49:21 51°13.682 2°55.806 15.2831 0.005298 0.032368 -2.871232
2007-01-26 07:49:26 51°13.683 2°55.799 15.2671 0.005298 0.032368 -2.871232
2007-01-26 07:49:31 51°13.685 2°55.794 15.2431 0.005298 0.032368 -2.871232
2007-01-26 07:49:36 51°13.686 2°55.788 15.2854 0.005298 0.032368 -2.871232
2007-01-26 07:49:41 51°13.687 2°55.782 15.2593 0.005298 0.032368 -2.871232
2007-01-26 07:49:46 51°13.688 2°55.776 15.2959 0.005298 0.032368 -2.871232
2007-01-26 07:49:51 51°13.689 2°55.771 15.2712 0.005298 0.032368 -2.871232
2007-01-26 07:49:56 51°13.689 2°55.765 15.258 0.005298 0.032368 -2.871232
2007-01-26 07:50:01 51°13.69 2°55.76 15.308 0.005298 0.032368 -2.871232
2007-01-26 07:50:06 51°13.69 2°55.755 15.2983 0.005298 0.032368 -2.871232
2007-01-26 07:50:11 51°13.691 2°55.75 15.2926 0.005298 0.032368 -2.871232
2007-01-26 07:50:16 51°13.691 2°55.745 15.2831 0.005298 0.032368 -2.871232
2007-01-26 07:50:21 51°13.691 2°55.74 15.288 0.005298 0.032368 -2.871232
2007-01-26 07:50:26 51°13.691 2°55.736 15.3166 0.005298 0.032368 -2.871232
2007-01-26 07:50:31 51°13.692 2°55.732 15.2667 0.005298 0.032368 -2.871232
2007-01-26 07:50:36 51°13.692 2°55.728 15.2693 0.005298 0.032368 -2.871232
2007-01-26 07:50:41 51°13.692 2°55.725 15.2852 0.005298 0.032368 -2.871232
2007-01-26 07:50:46 51°13.692 2°55.723 15.3123 0.005298 0.032368 -2.871232
2007-01-26 07:50:51 51°13.692 2°55.721 15.3573 0.005298 0.032368 -2.871232
2007-01-26 07:50:56 51°13.692 2°55.72 15.3105 0.005298 0.032368 -2.871232
2007-01-26 07:51:01 51°13.693 2°55.72 15.3611 0.005298 0.032369 -2.871232
2007-01-26 07:51:06 51°13.693 2°55.72 15.3584 0.005298 0.032369 -2.871232
2007-01-26 07:51:11 51°13.694 2°55.721 15.3921 0.005298 0.032368 -2.871232
2007-01-26 07:51:16 51°13.695 2°55.722 15.3784 0.005298 0.032368 -2.871232
2007-01-26 07:51:21 51°13.697 2°55.723 15.3914 0.005298 0.032368 -2.871232
2007-01-26 07:51:26 51°13.699 2°55.724 15.3825 0.005298 0.032368 -2.871232
2007-01-26 07:51:31 51°13.701 2°55.726 15.4099 0.005298 0.032369 -2.871232
2007-01-26 07:51:36 51°13.704 2°55.727 15.4102 0.005298 0.032369 -2.871232
2007-01-26 07:51:41 51°13.707 2°55.728 15.4056 0.005298 0.032368 -2.871232
2007-01-26 07:51:46 51°13.71 2°55.729 15.4264 0.005298 0.032368 -2.871232
2007-01-26 07:51:51 51°13.713 2°55.73 15.4343 0.005298 0.032368 -2.871232
2007-01-26 07:51:56 51°13.717 2°55.729 15.4227 0.005298 0.032368 -2.871232
2007-01-26 07:52:01 51°13.721 2°55.728 15.4289 0.005298 0.032368 -2.871232
2007-01-26 07:52:06 51°13.726 2°55.727 15.4193 0.005298 0.032368 -2.871232
2007-01-26 07:52:11 51°13.73 2°55.725 15.4069 0.005298 0.032368 -2.871232
2007-01-26 07:52:16 51°13.735 2°55.722 15.3845 0.005298 0.032368 -2.871232
2007-01-26 07:52:21 51°13.74 2°55.718 15.254 0.005298 0.032368 -2.871232
2007-01-26 07:52:26 51°13.745 2°55.714 15.2489 0.005298 0.032368 -2.871232
2007-01-26 07:52:31 51°13.75 2°55.71 15.1992 0.005298 0.032368 -2.871232
2007-01-26 07:52:36 51°13.755 2°55.705 15.235 0.005298 0.032368 -2.871232
2007-01-26 07:52:41 51°13.761 2°55.7 15.171 0.005298 0.032368 -2.871232
2007-01-26 07:52:46 51°13.767 2°55.695 15.1988 0.005298 0.032368 -2.871232
2007-01-26 07:52:51 51°13.773 2°55.689 15.2059 0.005298 0.032368 -2.871232
2007-01-26 07:52:56 51°13.779 2°55.684 15.1921 0.005298 0.032368 -2.871232
2007-01-26 07:53:01 51°13.786 2°55.678 15.1981 0.005298 0.032368 -2.871232
2007-01-26 07:53:06 51°13.793 2°55.672 13.3199 0.005298 0.032368 -2.871232
2007-01-26 07:53:11 51°13.8 2°55.667 13.8027 0.005298 0.032373 -2.871232
2007-01-26 07:53:16 51°13.807 2°55.661 13.8434 0.005298 0.032371 -2.871232
2007-01-26 07:53:21 51°13.814 2°55.655 13.9251 0.005298 0.032372 -2.871232
2007-01-26 07:53:26 51°13.821 2°55.649 13.9706 0.005298 0.032372 -2.871232
2007-01-26 07:53:31 51°13.829 2°55.644 13.9659 0.005298 0.032372 -2.871232
2007-01-26 07:53:36 51°13.837 2°55.638 14.0229 0.005298 0.032372 -2.871232
2007-01-26 07:53:41 51°13.845 2°55.631 14.0518 0.005298 0.032372 -2.871232
2007-01-26 07:53:46 51°13.853 2°55.625 14.0133 0.005298 0.032372 -2.871232
2007-01-26 07:53:51 51°13.862 2°55.619 14.0433 0.005298 0.032372 -2.871232
2007-01-26 07:53:56 51°13.871 2°55.613 14.0191 0.005298 0.032372 -2.871232
2007-01-26 07:54:01 51°13.88 2°55.606 14.1276 0.005298 0.032372 -2.871232
2007-01-26 07:54:06 51°13.889 2°55.599 14.0976 0.005298 0.032372 -2.871232
2007-01-26 07:54:11 51°13.898 2°55.592 14.0861 0.005298 0.032372 -2.871232
2007-01-26 07:54:16 51°13.907 2°55.585 14.1323 0.005298 0.032372 -2.871232
2007-01-26 07:54:21 51°13.917 2°55.578 14.1069 0.005298 0.032372 -2.871232
2007-01-26 07:54:26 51°13.926 2°55.571 14.1468 0.005298 0.032372 -2.871232
2007-01-26 07:54:31 51°13.936 2°55.563 14.1454 0.005298 0.032372 -2.871232
2007-01-26 07:54:36 51°13.945 2°55.556 14.1213 0.005298 0.032372 -2.871232
2007-01-26 07:54:41 51°13.955 2°55.549 14.1361 0.005298 0.032372 -2.871232
2007-01-26 07:54:46 51°13.965 2°55.542 14.1275 0.005298 0.032372 -2.871232
2007-01-26 07:54:51 51°13.974 2°55.535 14.1454 0.005298 0.032372 -2.871232
2007-01-26 07:54:56 51°13.984 2°55.527 14.1434 0.005298 0.032372 -2.871232
2007-01-26 07:55:01 51°13.994 2°55.52 14.1611 0.005298 0.032372 -2.871232
2007-01-26 07:55:06 51°14.003 2°55.513 14.1684 0.005298 0.032372 -2.871232
2007-01-26 07:55:11 51°14.013 2°55.506 14.1658 0.005298 0.032372 -2.871232
2007-01-26 07:55:16 51°14.023 2°55.499 14.1787 0.005298 0.032372 -2.871232
2007-01-26 07:55:21 51°14.033 2°55.493 14.184 0.005298 0.032372 -2.871232
2007-01-26 07:55:26 51°14.043 2°55.486 14.1812 0.005298 0.032372 -2.871232
2007-01-26 07:55:31 51°14.053 2°55.478 14.1833 0.005298 0.032372 -2.871232
2007-01-26 07:55:36 51°14.063 2°55.471 14.1932 0.005298 0.032372 -2.871232
2007-01-26 07:55:41 51°14.073 2°55.464 14.1952 0.005298 0.032372 -2.871232
2007-01-26 07:55:46 51°14.083 2°55.457 14.1926 0.005298 0.032372 -2.871232
2007-01-26 07:55:51 51°14.093 2°55.449 14.1771 0.005298 0.032372 -2.871232
2007-01-26 07:55:56 51°14.103 2°55.442 14.1875 0.005298 0.032372 -2.871232
2007-01-26 07:56:01 51°14.112 2°55.434 14.2006 0.005298 0.032372 -2.871232
2007-01-26 07:56:06 51°14.122 2°55.426 14.1888 0.005298 0.032372 -2.871232
2007-01-26 07:56:11 51°14.132 2°55.418 14.1977 0.005298 0.032372 -2.871232
2007-01-26 07:56:16 51°14.141 2°55.409 14.1953 0.005298 0.032372 -2.871232
2007-01-26 07:56:21 51°14.151 2°55.401 14.2034 0.005298 0.032372 -2.871232
2007-01-26 07:56:26 51°14.16 2°55.392 14.1892 0.005298 0.032372 -2.871232
2007-01-26 07:56:31 51°14.17 2°55.382 14.2107 0.005298 0.032372 -2.871232
2007-01-26 07:56:36 51°14.179 2°55.373 14.202 0.005298 0.032372 -2.871232
2007-01-26 07:56:41 51°14.188 2°55.362 14.2034 0.005298 0.032372 -2.871232
2007-01-26 07:56:46 51°14.197 2°55.352 14.2191 0.005298 0.032372 -2.871232
2007-01-26 07:56:51 51°14.205 2°55.341 14.2118 0.005298 0.032372 -2.871232
2007-01-26 07:56:56 51°14.214 2°55.33 14.2184 0.005298 0.032372 -2.871232
2007-01-26 07:57:01 51°14.222 2°55.319 14.2118 0.005298 0.032372 -2.871232
2007-01-26 07:57:06 51°14.23 2°55.307 14.2194 0.005298 0.032372 -2.871232
2007-01-26 07:57:11 51°14.238 2°55.296 14.213 0.005298 0.032372 -2.871232
2007-01-26 07:57:16 51°14.246 2°55.283 14.2223 0.005298 0.032372 -2.871232
2007-01-26 07:57:21 51°14.254 2°55.271 14.2133 0.005298 0.032372 -2.871232
2007-01-26 07:57:26 51°14.262 2°55.257 14.218 0.005298 0.032372 -2.871232
2007-01-26 07:57:31 51°14.271 2°55.244 14.2155 0.005298 0.032372 -2.871232
2007-01-26 07:57:36 51°14.279 2°55.23 14.2183 0.005298 0.032372 -2.871232
2007-01-26 07:57:41 51°14.287 2°55.217 14.2159 0.005298 0.032372 -2.871232
2007-01-26 07:57:46 51°14.295 2°55.202 14.2138 0.005298 0.032372 -2.871232
2007-01-26 07:57:51 51°14.304 2°55.188 14.2198 0.005298 0.032372 -2.871232
2007-01-26 07:57:56 51°14.312 2°55.173 14.2107 0.005298 0.032372 -2.871232
2007-01-26 07:58:01 51°14.321 2°55.158 14.2229 0.005298 0.032372 -2.871232
2007-01-26 07:58:06 51°14.33 2°55.144 14.2256 0.005298 0.032372 -2.871232
2007-01-26 07:58:11 51°14.339 2°55.129 14.2228 0.005298 0.032372 -2.871232
2007-01-26 07:58:16 51°14.349 2°55.115 14.2239 0.005298 0.032372 -2.871232
2007-01-26 07:58:21 51°14.358 2°55.102 14.2191 0.005298 0.032372 -2.871232
2007-01-26 07:58:26 51°14.366 2°55.09 14.2153 0.005298 0.032372 -2.871232
2007-01-26 07:58:31 51°14.374 2°55.078 14.2156 0.005298 0.032372 -2.871232
2007-01-26 07:58:36 51°14.382 2°55.067 14.2066 0.005298 0.032372 -2.871232
2007-01-26 07:58:41 51°14.39 2°55.057 14.2085 0.005298 0.032372 -2.871232
2007-01-26 07:58:46 51°14.398 2°55.048 14.2044 0.005298 0.032372 -2.871232
2007-01-26 07:58:51 51°14.406 2°55.038 14.1982 0.005298 0.032372 -2.871232
2007-01-26 07:58:56 51°14.413 2°55.029 14.1921 0.005298 0.032372 -2.871232
2007-01-26 07:59:01 51°14.422 2°55.021 14.1844 0.005298 0.032372 -2.871232
2007-01-26 07:59:06 51°14.43 2°55.013 14.1994 0.005298 0.032372 -2.871232
2007-01-26 07:59:11 51°14.439 2°55.006 14.2024 0.005298 0.032372 -2.871232
2007-01-26 07:59:16 51°14.449 2°54.998 14.2031 0.005298 0.032372 -2.871232
2007-01-26 07:59:21 51°14.46 2°54.991 14.2016 0.005298 0.032372 -2.871232
2007-01-26 07:59:26 51°14.471 2°54.984 14.2013 0.005298 0.032372 -2.871232
2007-01-26 07:59:31 51°14.482 2°54.977 14.2016 0.005298 0.032372 -2.871232
2007-01-26 07:59:36 51°14.494 2°54.971 14.1919 0.005298 0.032372 -2.871232
2007-01-26 07:59:41 51°14.506 2°54.965 14.195 0.005298 0.032372 -2.871232
2007-01-26 07:59:46 51°14.519 2°54.959 14.1896 0.005298 0.032372 -2.871232
2007-01-26 07:59:51 51°14.532 2°54.954 14.1886 0.005298 0.032372 -2.871232
2007-01-26 07:59:56 51°14.545 2°54.948 14.1902 0.005298 0.032372 -2.871232
2007-01-26 08:00:01 51°14.558 2°54.942 14.1802 0.005298 0.032372 -2.871232
2007-01-26 08:00:06 51°14.57 2°54.936 14.1791 0.005298 0.032372 -2.871232
2007-01-26 08:00:11 51°14.583 2°54.929 14.1784 0.005298 0.032372 -2.871232
2007-01-26 08:00:16 51°14.596 2°54.922 14.1765 0.005298 0.032372 -2.871232
2007-01-26 08:00:21 51°14.609 2°54.915 14.1781 0.005298 0.032372 -2.871232
2007-01-26 08:00:26 51°14.622 2°54.908 14.177 0.005298 0.032372 -2.871232
2007-01-26 08:00:31 51°14.636 2°54.9 14.178 0.005298 0.032372 -2.871232
2007-01-26 08:00:36 51°14.65 2°54.894 14.1816 0.005298 0.032372 -2.871232
2007-01-26 08:00:41 51°14.664 2°54.887 14.1809 0.005298 0.032372 -2.871232
2007-01-26 08:00:46 51°14.679 2°54.881 14.1741 0.005298 0.032372 -2.871232
2007-01-26 08:00:51 51°14.693 2°54.873 14.1755 0.005298 0.032372 -2.871232
2007-01-26 08:00:56 51°14.707 2°54.864 14.1766 0.005298 0.032372 -2.871232
2007-01-26 08:01:01 51°14.721 2°54.855 14.179 0.005298 0.032372 -2.871232
2007-01-26 08:01:06 51°14.735 2°54.844 14.1767 0.005298 0.032372 -2.871232
2007-01-26 08:01:11 51°14.748 2°54.833 14.178 0.005298 0.032372 -2.871232
2007-01-26 08:01:16 51°14.762 2°54.821 14.1796 0.005298 0.032372 -2.871232
2007-01-26 08:01:21 51°14.775 2°54.809 14.1797 0.005298 0.032372 -2.871232
2007-01-26 08:01:26 51°14.789 2°54.797 14.1818 0.005298 0.032373 -2.871232
2007-01-26 08:01:31 51°14.803 2°54.783 14.1827 0.005298 0.032373 -2.871232
2007-01-26 08:01:36 51°14.817 2°54.77 14.1852 0.005298 0.032373 -2.871232
2007-01-26 08:01:41 51°14.832 2°54.757 14.1841 0.005298 0.032373 -2.871232
2007-01-26 08:01:46 51°14.846 2°54.743 14.186 0.005298 0.032373 -2.871232
2007-01-26 08:01:51 51°14.861 2°54.729 14.1848 0.005298 0.032373 -2.871232
2007-01-26 08:01:56 51°14.875 2°54.715 14.1888 0.005298 0.032373 -2.871232
2007-01-26 08:02:01 51°14.89 2°54.701 14.1896 0.005298 0.032373 -2.871232
2007-01-26 08:02:06 51°14.905 2°54.687 14.1895 0.005298 0.032373 -2.871232
2007-01-26 08:02:11 51°14.92 2°54.672 14.1917 0.005298 0.032373 -2.871232
2007-01-26 08:02:16 51°14.935 2°54.658 14.1923 0.005298 0.032373 -2.871232
2007-01-26 08:02:21 51°14.951 2°54.643 14.1932 0.005298 0.032373 -2.871232
2007-01-26 08:02:26 51°14.966 2°54.629 14.1901 0.005298 0.032373 -2.871232
2007-01-26 08:02:31 51°14.982 2°54.614 14.197 0.005298 0.032373 -2.871232
2007-01-26 08:02:36 51°14.998 2°54.6 14.1967 0.005298 0.032373 -2.871232
2007-01-26 08:02:41 51°15.013 2°54.585 14.1969 0.005298 0.032373 -2.871232
2007-01-26 08:02:46 51°15.029 2°54.57 14.1984 0.005298 0.032373 -2.871232
2007-01-26 08:02:51 51°15.044 2°54.554 14.2001 0.005298 0.032374 -2.871232
2007-01-26 08:02:56 51°15.059 2°54.538 14.2023 0.005298 0.032374 -2.871232
2007-01-26 08:03:01 51°15.074 2°54.522 14.2029 0.005298 0.032374 -2.871232
2007-01-26 08:03:06 51°15.09 2°54.507 14.2047 0.005298 0.032374 -2.871232
2007-01-26 08:03:11 51°15.105 2°54.491 14.2052 0.005298 0.032374 -2.871232
2007-01-26 08:03:16 51°15.12 2°54.474 14.2072 0.005298 0.032374 -2.871232
2007-01-26 08:03:21 51°15.135 2°54.458 14.2075 0.005298 0.032374 -2.871232
2007-01-26 08:03:26 51°15.15 2°54.441 14.2089 0.005298 0.032374 -2.871232
2007-01-26 08:03:31 51°15.164 2°54.424 14.2089 0.005298 0.032374 -2.871232
2007-01-26 08:03:36 51°15.179 2°54.407 14.2105 0.005298 0.032374 -2.871232
2007-01-26 08:03:41 51°15.194 2°54.39 14.2116 0.005298 0.032375 -2.871232
2007-01-26 08:03:46 51°15.21 2°54.374 14.2157 0.005298 0.032375 -2.871232
2007-01-26 08:03:51 51°15.225 2°54.358 14.2168 0.005298 0.032375 -2.871232
2007-01-26 08:03:56 51°15.24 2°54.342 14.2172 0.005298 0.032375 -2.871232
2007-01-26 08:04:01 51°15.255 2°54.325 14.218 0.005298 0.032375 -2.871232
2007-01-26 08:04:06 51°15.27 2°54.309 14.2209 0.005298 0.032375 -2.871232
2007-01-26 08:04:11 51°15.285 2°54.293 14.2217 0.005298 0.032375 -2.871232
2007-01-26 08:04:16 51°15.3 2°54.276 14.2228 0.005298 0.032375 -2.871232
2007-01-26 08:04:21 51°15.315 2°54.26 14.2245 0.005298 0.032376 -2.871232
2007-01-26 08:04:26 51°15.33 2°54.243 14.2235 0.005298 0.032376 -2.871232
2007-01-26 08:04:31 51°15.346 2°54.226 14.2279 0.005298 0.032376 -2.871232
2007-01-26 08:04:36 51°15.361 2°54.21 14.2285 0.005298 0.032376 -2.871232
2007-01-26 08:04:41 51°15.376 2°54.194 14.2312 0.005298 0.032376 -2.871232
2007-01-26 08:04:46 51°15.392 2°54.178 14.2314 0.005298 0.032376 -2.871232
2007-01-26 08:04:51 51°15.407 2°54.161 14.2308 0.005298 0.032376 -2.871232
2007-01-26 08:04:56 51°15.422 2°54.145 14.2318 0.005298 0.032376 -2.871232
2007-01-26 08:05:01 51°15.437 2°54.128 14.2342 0.005298 0.032377 -2.871232
2007-01-26 08:05:06 51°15.452 2°54.112 14.2353 0.005298 0.032377 -2.871232
2007-01-26 08:05:11 51°15.468 2°54.096 14.2366 0.005298 0.032377 -2.871232
2007-01-26 08:05:16 51°15.483 2°54.08 14.2365 0.005298 0.032377 -2.871232
2007-01-26 08:05:21 51°15.498 2°54.064 14.2375 0.005298 0.032377 -2.871232
2007-01-26 08:05:26 51°15.513 2°54.047 14.2383 0.005298 0.032377 -2.871232
2007-01-26 08:05:31 51°15.528 2°54.031 14.2386 0.005298 0.032377 -2.871232
2007-01-26 08:05:36 51°15.543 2°54.014 14.2406 0.005298 0.032377 -2.871232
2007-01-26 08:05:41 51°15.558 2°53.998 14.2417 0.005298 0.032378 -2.871232
2007-01-26 08:05:46 51°15.573 2°53.981 14.2431 0.005298 0.032378 -2.871232
2007-01-26 08:05:51 51°15.588 2°53.965 14.2452 0.005298 0.032378 -2.871232
2007-01-26 08:05:56 51°15.604 2°53.949 14.2479 0.005298 0.032378 -2.871232
2007-01-26 08:06:01 51°15.619 2°53.933 14.2478 0.005298 0.032378 -2.871232
2007-01-26 08:06:06 51°15.635 2°53.917 14.2481 0.005298 0.032378 -2.871232
2007-01-26 08:06:11 51°15.65 2°53.901 14.2499 0.005298 0.032378 -2.871232
2007-01-26 08:06:16 51°15.665 2°53.885 14.251 0.005298 0.032379 -2.871232
2007-01-26 08:06:21 51°15.681 2°53.869 14.2528 0.005298 0.032379 -2.871232
2007-01-26 08:06:26 51°15.696 2°53.853 14.2548 0.005298 0.032379 -2.871232
2007-01-26 08:06:31 51°15.712 2°53.836 14.2553 0.005298 0.032379 -2.871232
2007-01-26 08:06:36 51°15.727 2°53.821 14.2559 0.005298 0.032379 -2.871232
2007-01-26 08:06:41 51°15.743 2°53.805 14.2573 0.005298 0.032379 -2.871232
2007-01-26 08:06:46 51°15.758 2°53.789 14.2595 0.005298 0.03238 -2.871232
2007-01-26 08:06:51 51°15.774 2°53.774 14.2612 0.005298 0.03238 -2.871232
2007-01-26 08:06:56 51°15.789 2°53.758 14.262 0.005298 0.03238 -2.871232
2007-01-26 08:07:01 51°15.805 2°53.743 14.264 0.005298 0.03238 -2.871232
2007-01-26 08:07:06 51°15.821 2°53.727 14.264 0.005298 0.03238 -2.871232
2007-01-26 08:07:11 51°15.836 2°53.711 14.2645 0.005298 0.03238 -2.871232
2007-01-26 08:07:16 51°15.852 2°53.694 14.2666 0.005298 0.032381 -2.871232
2007-01-26 08:07:21 51°15.867 2°53.678 14.2669 0.005298 0.032381 -2.871232
2007-01-26 08:07:26 51°15.882 2°53.662 14.2675 0.005298 0.032381 -2.871232
2007-01-26 08:07:31 51°15.897 2°53.646 14.2688 0.005298 0.032381 -2.871232
2007-01-26 08:07:36 51°15.913 2°53.629 14.2712 0.005298 0.032381 -2.871232
2007-01-26 08:07:41 51°15.928 2°53.613 14.2722 0.005298 0.032381 -2.871232
2007-01-26 08:07:46 51°15.943 2°53.597 14.2738 0.005298 0.032381 -2.871232
2007-01-26 08:07:51 51°15.959 2°53.582 14.2759 0.005298 0.032381 -2.871232
2007-01-26 08:07:56 51°15.974 2°53.566 14.2746 0.005298 0.032382 -2.871232
2007-01-26 08:08:01 51°15.99 2°53.55 14.2769 0.005298 0.032382 -2.871232
2007-01-26 08:08:06 51°16.005 2°53.534 14.2762 0.005298 0.032382 -2.871232
2007-01-26 08:08:11 51°16.021 2°53.518 14.2791 0.005298 0.032382 -2.871232
2007-01-26 08:08:16 51°16.036 2°53.501 14.28 0.005298 0.032382 -2.871232
2007-01-26 08:08:21 51°16.051 2°53.485 14.2815 0.005298 0.032382 -2.871232
2007-01-26 08:08:26 51°16.066 2°53.468 14.281 0.005298 0.032383 -2.871232
2007-01-26 08:08:31 51°16.081 2°53.452 14.2841 0.005298 0.032383 -2.871232
2007-01-26 08:08:36 51°16.097 2°53.436 14.2855 0.005298 0.032383 -2.871232
2007-01-26 08:08:41 51°16.112 2°53.42 14.286 0.005298 0.032383 -2.871232
2007-01-26 08:08:46 51°16.128 2°53.404 14.2883 0.005298 0.032383 -2.871232
2007-01-26 08:08:51 51°16.143 2°53.389 14.2899 0.005298 0.032383 -2.871232
2007-01-26 08:08:56 51°16.159 2°53.373 14.2892 0.005298 0.032383 -2.871232
2007-01-26 08:09:01 51°16.174 2°53.358 14.2899 0.005298 0.032384 -2.871232
2007-01-26 08:09:06 51°16.19 2°53.342 14.2904 0.005298 0.032384 -2.871232
2007-01-26 08:09:11 51°16.206 2°53.328 14.2925 0.005298 0.032384 -2.871232
2007-01-26 08:09:16 51°16.223 2°53.314 14.2891 0.005298 0.032384 -2.871232
2007-01-26 08:09:21 51°16.239 2°53.3 14.2921 0.005298 0.032384 -2.871232
2007-01-26 08:09:26 51°16.255 2°53.285 14.2935 0.005298 0.032385 -2.871232
2007-01-26 08:09:31 51°16.271 2°53.271 14.2949 0.005298 0.032385 -2.871232
2007-01-26 08:09:36 51°16.287 2°53.257 14.2957 0.005298 0.032385 -2.871232
2007-01-26 08:09:41 51°16.303 2°53.243 14.2959 0.005298 0.032385 -2.871232
2007-01-26 08:09:46 51°16.319 2°53.229 14.2973 0.005298 0.032385 -2.871232
2007-01-26 08:09:51 51°16.335 2°53.215 14.2986 0.005298 0.032385 -2.871232
2007-01-26 08:09:56 51°16.352 2°53.2 14.2978 0.005298 0.032386 -2.871232
2007-01-26 08:10:01 51°16.368 2°53.186 14.2997 0.005298 0.032386 -2.871232
2007-01-26 08:10:06 51°16.384 2°53.172 14.3021 0.005298 0.032386 -2.871232
2007-01-26 08:10:11 51°16.4 2°53.158 14.303 0.005298 0.032386 -2.871232
2007-01-26 08:10:16 51°16.416 2°53.143 14.3046 0.005298 0.032386 -2.871232
2007-01-26 08:10:21 51°16.432 2°53.129 14.3067 0.005298 0.032386 -2.871232
2007-01-26 08:10:26 51°16.449 2°53.115 14.3081 0.005298 0.032386 -2.871232
2007-01-26 08:10:31 51°16.465 2°53.101 14.3101 0.005298 0.032387 -2.871232
2007-01-26 08:10:36 51°16.481 2°53.087 14.3104 0.005298 0.032387 -2.871232
2007-01-26 08:10:41 51°16.498 2°53.073 14.3117 0.005298 0.032387 -2.871232
2007-01-26 08:10:46 51°16.514 2°53.058 14.3131 0.005298 0.032387 -2.871232
2007-01-26 08:10:51 51°16.53 2°53.044 14.3142 0.005298 0.032387 -2.871232
2007-01-26 08:10:56 51°16.547 2°53.031 14.3155 0.005298 0.032388 -2.871232
2007-01-26 08:11:01 51°16.563 2°53.017 14.3166 0.005298 0.032388 -2.871232
2007-01-26 08:11:06 51°16.579 2°53.002 14.3186 0.005298 0.032388 -2.871232
2007-01-26 08:11:11 51°16.596 2°52.989 14.3198 0.005298 0.032388 -2.871232
2007-01-26 08:11:16 51°16.612 2°52.975 14.3206 0.005298 0.032388 -2.871232
2007-01-26 08:11:21 51°16.629 2°52.962 14.3206 0.005298 0.032388 -2.871232
2007-01-26 08:11:26 51°16.645 2°52.948 14.3228 0.005298 0.032389 -2.871232
2007-01-26 08:11:31 51°16.661 2°52.934 14.325 0.005298 0.032389 -2.871232
2007-01-26 08:11:36 51°16.677 2°52.92 14.3261 0.005298 0.032389 -2.871232
2007-01-26 08:11:41 51°16.694 2°52.907 14.3281 0.005298 0.032389 -2.871232
2007-01-26 08:11:46 51°16.71 2°52.893 14.3288 0.005298 0.032389 -2.871232
2007-01-26 08:11:51 51°16.726 2°52.88 14.3289 0.005298 0.032389 -2.871232
2007-01-26 08:11:56 51°16.742 2°52.866 14.3305 0.005298 0.03239 -2.871232
2007-01-26 08:12:01 51°16.758 2°52.851 14.331 0.005298 0.03239 -2.871232
2007-01-26 08:12:06 51°16.774 2°52.836 14.3331 0.005298 0.03239 -2.871232
2007-01-26 08:12:11 51°16.79 2°52.821 14.3342 0.005298 0.03239 -2.871232
2007-01-26 08:12:16 51°16.806 2°52.807 14.3359 0.005298 0.03239 -2.871232
2007-01-26 08:12:21 51°16.821 2°52.793 14.3367 0.005298 0.03239 -2.871232
2007-01-26 08:12:26 51°16.837 2°52.778 14.3376 0.005298 0.032391 -2.871232
2007-01-26 08:12:31 51°16.854 2°52.764 14.3388 0.005298 0.032391 -2.871232
2007-01-26 08:12:36 51°16.869 2°52.75 14.3406 0.005298 0.032391 -2.871232
2007-01-26 08:12:41 51°16.885 2°52.735 14.3405 0.005298 0.032391 -2.871232
2007-01-26 08:12:46 51°16.902 2°52.721 14.3421 0.005298 0.032391 -2.871232
2007-01-26 08:12:51 51°16.917 2°52.706 14.3428 0.005298 0.032391 -2.871232
2007-01-26 08:12:56 51°16.934 2°52.692 14.345 0.005298 0.032392 -2.871232
2007-01-26 08:13:01 51°16.95 2°52.677 14.3462 0.005298 0.032392 -2.871232
2007-01-26 08:13:06 51°16.966 2°52.662 14.3475 0.005298 0.032392 -2.871232
2007-01-26 08:13:11 51°16.982 2°52.647 14.3493 0.005298 0.032392 -2.871232
2007-01-26 08:13:16 51°16.998 2°52.633 14.3505 0.005298 0.032392 -2.871232
2007-01-26 08:13:21 51°17.014 2°52.619 14.3514 0.005298 0.032392 -2.871232
2007-01-26 08:13:26 51°17.03 2°52.605 14.3537 0.005298 0.032393 -2.871232
2007-01-26 08:13:31 51°17.047 2°52.59 14.3544 0.005298 0.032393 -2.871232
2007-01-26 08:13:36 51°17.063 2°52.576 14.3548 0.005298 0.032393 -2.871232
2007-01-26 08:13:41 51°17.079 2°52.563 14.3549 0.005298 0.032393 -2.871232
2007-01-26 08:13:46 51°17.096 2°52.549 14.3564 0.005298 0.032393 -2.871232
2007-01-26 08:13:51 51°17.112 2°52.535 14.3586 0.005298 0.032394 -2.871232
2007-01-26 08:13:56 51°17.128 2°52.52 14.3593 0.005298 0.032394 -2.871232
2007-01-26 08:14:01 51°17.144 2°52.506 14.3604 0.005298 0.032394 -2.871232
2007-01-26 08:14:06 51°17.16 2°52.491 14.3615 0.005298 0.032394 -2.871232
2007-01-26 08:14:11 51°17.177 2°52.478 14.3635 0.005298 0.032394 -2.871232
2007-01-26 08:14:16 51°17.193 2°52.463 14.361 0.005298 0.032395 -2.871232
2007-01-26 08:14:21 51°17.21 2°52.451 14.3644 0.005298 0.032395 -2.871232
2007-01-26 08:14:26 51°17.228 2°52.44 14.3679 0.005298 0.032395 -2.871232
2007-01-26 08:14:31 51°17.246 2°52.432 14.3696 0.005298 0.032395 -2.871232
2007-01-26 08:14:36 51°17.264 2°52.424 14.3703 0.005298 0.032395 -2.871232
2007-01-26 08:14:41 51°17.283 2°52.419 14.3725 0.005298 0.032395 -2.871232
2007-01-26 08:14:46 51°17.302 2°52.413 14.3744 0.005298 0.032395 -2.871232
2007-01-26 08:14:51 51°17.321 2°52.408 14.3742 0.005298 0.032396 -2.871232
2007-01-26 08:14:56 51°17.34 2°52.403 14.3767 0.005298 0.032396 -2.871232
2007-01-26 08:15:01 51°17.358 2°52.398 14.3773 0.005298 0.032396 -2.871232
2007-01-26 08:15:06 51°17.377 2°52.393 14.3779 0.005298 0.032396 -2.871232
2007-01-26 08:15:11 51°17.396 2°52.39 14.3793 0.005298 0.032396 -2.871232
2007-01-26 08:15:16 51°17.415 2°52.386 14.3803 0.005298 0.032396 -2.871232
2007-01-26 08:15:21 51°17.434 2°52.384 14.381 0.005298 0.032397 -2.871232
2007-01-26 08:15:26 51°17.454 2°52.381 14.3832 0.005298 0.032397 -2.871232
2007-01-26 08:15:31 51°17.473 2°52.378 14.3836 0.005298 0.032397 -2.871232
2007-01-26 08:15:36 51°17.492 2°52.376 14.3846 0.005298 0.032397 -2.871232
2007-01-26 08:15:41 51°17.511 2°52.374 14.3874 0.005298 0.032397 -2.871232
2007-01-26 08:15:46 51°17.53 2°52.372 14.3886 0.005298 0.032398 -2.871232
2007-01-26 08:15:51 51°17.55 2°52.369 14.3905 0.005298 0.032398 -2.871232
2007-01-26 08:15:56 51°17.569 2°52.368 14.3878 0.005298 0.032398 -2.871232
2007-01-26 08:16:01 51°17.588 2°52.366 14.3911 0.005298 0.032398 -2.871232
2007-01-26 08:16:06 51°17.608 2°52.364 14.3925 0.005298 0.032398 -2.871232
2007-01-26 08:16:11 51°17.627 2°52.362 14.3939 0.005298 0.032398 -2.871232
2007-01-26 08:16:16 51°17.647 2°52.362 14.3924 0.005298 0.032399 -2.871232
2007-01-26 08:16:21 51°17.666 2°52.359 14.3967 0.005298 0.032399 -2.871232
2007-01-26 08:16:26 51°17.686 2°52.358 14.3967 0.005298 0.032399 -2.871232
2007-01-26 08:16:31 51°17.705 2°52.356 14.3991 0.005298 0.032399 -2.871232
2007-01-26 08:16:36 51°17.724 2°52.356 14.4003 0.005298 0.032399 -2.871232
2007-01-26 08:16:41 51°17.743 2°52.354 14.3982 0.005298 0.0324 -2.871232
2007-01-26 08:16:46 51°17.763 2°52.353 14.4014 0.005298 0.0324 -2.871232
2007-01-26 08:16:51 51°17.782 2°52.352 14.4019 0.005298 0.0324 -2.871232
2007-01-26 08:16:56 51°17.802 2°52.351 14.4047 0.005298 0.0324 -2.871232
2007-01-26 08:17:01 51°17.821 2°52.35 14.4029 0.005298 0.0324 -2.871232
2007-01-26 08:17:06 51°17.84 2°52.349 14.4048 0.005298 0.0324 -2.871232
2007-01-26 08:17:11 51°17.859 2°52.346 14.4085 0.005298 0.0324 -2.871232
2007-01-26 08:17:16 51°17.879 2°52.346 14.4082 0.005298 0.032401 -2.871232
2007-01-26 08:17:21 51°17.898 2°52.343 14.4103 0.005298 0.032401 -2.871232
2007-01-26 08:17:26 51°17.918 2°52.343 14.399 0.005298 0.032401 -2.871232
2007-01-26 08:17:31 51°17.937 2°52.339 14.4135 0.005298 0.032401 -2.871232
2007-01-26 08:17:36 51°17.956 2°52.34 14.4077 0.005298 0.032401 -2.871232
2007-01-26 08:17:41 51°17.976 2°52.337 14.4124 0.005298 0.032401 -2.871232
2007-01-26 08:17:46 51°17.995 2°52.336 14.4151 0.005298 0.032401 -2.871232
2007-01-26 08:17:51 51°18.014 2°52.333 14.4161 0.005298 0.032402 -2.871232
2007-01-26 08:17:56 51°18.034 2°52.332 14.4177 0.005298 0.032402 -2.871232
2007-01-26 08:18:01 51°18.054 2°52.33 14.4187 0.005298 0.032402 -2.871232
2007-01-26 08:18:06 51°18.073 2°52.328 14.4215 0.005298 0.032402 -2.871232
2007-01-26 08:18:11 51°18.093 2°52.326 14.4182 0.005298 0.032403 -2.871232
2007-01-26 08:18:16 51°18.112 2°52.325 14.4224 0.005298 0.032403 -2.871232
2007-01-26 08:18:21 51°18.131 2°52.323 14.425 0.005298 0.032403 -2.871232
2007-01-26 08:18:26 51°18.151 2°52.325 14.4283 0.005298 0.032403 -2.871232
2007-01-26 08:18:31 51°18.171 2°52.329 14.4288 0.005298 0.032404 -2.871232
2007-01-26 08:18:36 51°18.19 2°52.332 14.4334 0.005298 0.032404 -2.871232
2007-01-26 08:18:41 51°18.208 2°52.341 14.433 0.005298 0.032404 -2.871232
2007-01-26 08:18:46 51°18.227 2°52.351 14.4368 0.005298 0.032404 -2.871232
2007-01-26 08:18:51 51°18.244 2°52.364 14.4379 0.005298 0.032404 -2.871232
2007-01-26 08:18:56 51°18.261 2°52.379 14.4393 0.005298 0.032404 -2.871232
2007-01-26 08:19:01 51°18.278 2°52.395 14.4384 0.005298 0.032404 -2.871232
2007-01-26 08:19:06 51°18.294 2°52.411 14.4424 0.005298 0.032404 -2.871232
2007-01-26 08:19:11 51°18.31 2°52.428 14.4437 0.005298 0.032404 -2.871232
2007-01-26 08:19:16 51°18.326 2°52.447 14.4459 0.005298 0.032405 -2.871232
2007-01-26 08:19:21 51°18.341 2°52.467 14.4518 0.005298 0.032404 -2.871232
2007-01-26 08:19:26 51°18.354 2°52.49 14.4462 0.005298 0.032404 -2.871232
2007-01-26 08:19:31 51°18.368 2°52.512 14.4558 0.005298 0.032404 -2.871232
2007-01-26 08:19:36 51°18.379 2°52.536 14.4536 0.005298 0.032404 -2.871232
2007-01-26 08:19:41 51°18.39 2°52.561 14.4584 0.005298 0.032404 -2.871232
2007-01-26 08:19:46 51°18.4 2°52.588 14.4616 0.005298 0.032405 -2.871232
2007-01-26 08:19:51 51°18.408 2°52.616 14.4564 0.005298 0.032405 -2.871232
2007-01-26 08:19:56 51°18.417 2°52.644 14.4621 0.005298 0.032406 -2.871232
2007-01-26 08:20:01 51°18.423 2°52.672 14.4619 0.005298 0.032406 -2.871232
2007-01-26 08:20:06 51°18.43 2°52.7 14.4606 0.005298 0.032406 -2.871232
2007-01-26 08:20:11 51°18.437 2°52.73 14.4632 0.005298 0.032406 -2.871232
2007-01-26 08:20:16 51°18.444 2°52.758 14.4629 0.005298 0.032407 -2.871232
2007-01-26 08:20:21 51°18.449 2°52.788 14.4456 0.005298 0.032408 -2.871232
2007-01-26 08:20:26 51°18.457 2°52.817 14.4759 0.005298 0.032408 -2.871232
2007-01-26 08:20:31 51°18.461 2°52.846 14.4643 0.005298 0.032408 -2.871232
2007-01-26 08:20:36 51°18.467 2°52.876 14.4686 0.005298 0.032408 -2.871232
2007-01-26 08:20:41 51°18.472 2°52.906 14.4577 0.005298 0.032406 -2.871232
2007-01-26 08:20:46 51°18.478 2°52.935 14.4759 0.005298 0.032407 -2.871232
2007-01-26 08:20:51 51°18.483 2°52.965 14.4637 0.005298 0.032407 -2.871232
2007-01-26 08:20:56 51°18.489 2°52.995 14.4775 0.005298 0.032408 -2.871232
2007-01-26 08:21:01 51°18.495 2°53.026 14.4747 0.005298 0.032409 -2.871232
2007-01-26 08:21:06 51°18.5 2°53.056 14.4751 0.005298 0.032409 -2.871232
2007-01-26 08:21:11 51°18.504 2°53.087 14.4723 0.005298 0.032409 -2.871232
2007-01-26 08:21:16 51°18.509 2°53.118 14.4709 0.005298 0.032409 -2.871232
2007-01-26 08:21:21 51°18.515 2°53.148 14.4779 0.005298 0.032409 -2.871232
2007-01-26 08:21:26 51°18.52 2°53.178 14.4978 0.005298 0.03241 -2.871232
2007-01-26 08:21:31 51°18.523 2°53.209 14.4893 0.005298 0.032411 -2.871232
2007-01-26 08:21:36 51°18.528 2°53.24 14.48 0.005298 0.032411 -2.871232
2007-01-26 08:21:41 51°18.533 2°53.27 14.4542 0.005298 0.03241 -2.871232
2007-01-26 08:21:46 51°18.538 2°53.3 14.4499 0.005298 0.032411 -2.871232
2007-01-26 08:21:51 51°18.546 2°53.33 14.4715 0.005298 0.032411 -2.871232
2007-01-26 08:21:56 51°18.553 2°53.359 14.4915 0.005298 0.032411 -2.871232
2007-01-26 08:22:01 51°18.56 2°53.388 14.4852 0.005298 0.032412 -2.871232
2007-01-26 08:22:06 51°18.567 2°53.416 14.4915 0.005298 0.032412 -2.871232
2007-01-26 08:22:11 51°18.573 2°53.446 14.4606 0.005298 0.032412 -2.871232
2007-01-26 08:22:16 51°18.581 2°53.475 14.5074 0.005298 0.032412 -2.871232
2007-01-26 08:22:21 51°18.587 2°53.505 14.4899 0.005298 0.032412 -2.871232
2007-01-26 08:22:26 51°18.594 2°53.534 14.5003 0.005298 0.032411 -2.871232
2007-01-26 08:22:31 51°18.599 2°53.564 14.4899 0.005298 0.03241 -2.871232
2007-01-26 08:22:36 51°18.607 2°53.593 14.5009 0.005298 0.032411 -2.871232
2007-01-26 08:22:41 51°18.614 2°53.623 14.5039 0.005298 0.032411 -2.871232
2007-01-26 08:22:46 51°18.62 2°53.652 14.4938 0.005298 0.032411 -2.871232
2007-01-26 08:22:51 51°18.628 2°53.681 14.4948 0.005298 0.032412 -2.871232
2007-01-26 08:22:56 51°18.637 2°53.708 14.5074 0.005298 0.032412 -2.871232
2007-01-26 08:23:01 51°18.644 2°53.737 14.5006 0.005298 0.032412 -2.871232
2007-01-26 08:23:06 51°18.653 2°53.765 14.5268 0.005298 0.032412 -2.871232
2007-01-26 08:23:11 51°18.658 2°53.795 14.4977 0.005298 0.032412 -2.871232
2007-01-26 08:23:16 51°18.666 2°53.823 14.513 0.005298 0.032412 -2.871232
2007-01-26 08:23:21 51°18.672 2°53.853 14.5129 0.005298 0.032412 -2.871232
2007-01-26 08:23:26 51°18.678 2°53.882 14.5037 0.005298 0.032412 -2.871232
2007-01-26 08:23:31 51°18.685 2°53.912 14.4978 0.005298 0.032411 -2.871232
2007-01-26 08:23:36 51°18.694 2°53.941 14.5309 0.005298 0.032411 -2.871232
2007-01-26 08:23:41 51°18.699 2°53.971 14.4931 0.005298 0.032411 -2.871232
2007-01-26 08:23:46 51°18.707 2°54 14.5297 0.005298 0.03241 -2.871232
2007-01-26 08:23:51 51°18.714 2°54.029 14.5107 0.005298 0.032411 -2.871232
2007-01-26 08:23:56 51°18.721 2°54.059 14.5199 0.005298 0.032412 -2.871232
2007-01-26 08:24:01 51°18.727 2°54.089 14.5152 0.005298 0.032412 -2.871232
2007-01-26 08:24:06 51°18.735 2°54.118 14.5288 0.005298 0.032412 -2.871232
2007-01-26 08:24:11 51°18.741 2°54.148 14.5022 0.005298 0.032413 -2.871232
2007-01-26 08:24:16 51°18.748 2°54.177 14.5322 0.005298 0.032414 -2.871232
2007-01-26 08:24:21 51°18.754 2°54.206 14.5165 0.005298 0.032414 -2.871232
2007-01-26 08:24:26 51°18.76 2°54.234 14.5102 0.005298 0.032413 -2.871232
2007-01-26 08:24:31 51°18.767 2°54.263 14.506 0.005298 0.032412 -2.871232
2007-01-26 08:24:36 51°18.775 2°54.291 14.5237 0.005298 0.032413 -2.871232
2007-01-26 08:24:41 51°18.783 2°54.319 14.5352 0.005298 0.032413 -2.871232
2007-01-26 08:24:46 51°18.79 2°54.347 14.5219 0.005298 0.032414 -2.871232
2007-01-26 08:24:51 51°18.798 2°54.375 14.5509 0.005298 0.032414 -2.871232
2007-01-26 08:24:56 51°18.805 2°54.404 14.5277 0.005298 0.032415 -2.871232
2007-01-26 08:25:01 51°18.813 2°54.432 14.536 0.005298 0.032415 -2.871232
2007-01-26 08:25:06 51°18.822 2°54.46 14.5423 0.005298 0.032415 -2.871232
2007-01-26 08:25:11 51°18.83 2°54.488 14.5484 0.005298 0.032416 -2.871232
2007-01-26 08:25:16 51°18.837 2°54.517 14.5263 0.005298 0.032416 -2.871232
2007-01-26 08:25:21 51°18.847 2°54.544 14.5492 0.005298 0.032415 -2.871232
2007-01-26 08:25:26 51°18.855 2°54.573 14.5407 0.005298 0.032415 -2.871232
2007-01-26 08:25:31 51°18.864 2°54.601 14.5392 0.005298 0.032415 -2.871232
2007-01-26 08:25:36 51°18.871 2°54.63 14.5634 0.005298 0.032415 -2.871232
2007-01-26 08:25:41 51°18.878 2°54.659 14.5359 0.005298 0.032415 -2.871232
2007-01-26 08:25:46 51°18.886 2°54.687 14.5608 0.005298 0.032413 -2.871232
2007-01-26 08:25:51 51°18.893 2°54.716 14.5489 0.005298 0.032413 -2.871232
2007-01-26 08:25:56 51°18.901 2°54.745 14.5577 0.005298 0.032414 -2.871232
2007-01-26 08:26:01 51°18.906 2°54.775 14.5089 0.005298 0.032414 -2.871232
2007-01-26 08:26:06 51°18.915 2°54.802 14.577 0.005298 0.032414 -2.871232
2007-01-26 08:26:11 51°18.919 2°54.832 14.5051 0.005298 0.032414 -2.871232
2007-01-26 08:26:16 51°18.928 2°54.86 14.5655 0.005298 0.032414 -2.871232
2007-01-26 08:26:21 51°18.934 2°54.889 14.5486 0.005298 0.032413 -2.871232
2007-01-26 08:26:26 51°18.942 2°54.916 14.5752 0.005298 0.032413 -2.871232
2007-01-26 08:26:31 51°18.948 2°54.945 14.5503 0.005298 0.032415 -2.871232
2007-01-26 08:26:36 51°18.956 2°54.973 14.5708 0.005298 0.032415 -2.871232
2007-01-26 08:26:41 51°18.963 2°55.001 14.5655 0.005298 0.032416 -2.871232
2007-01-26 08:26:46 51°18.97 2°55.029 14.5776 0.005298 0.032416 -2.871232
2007-01-26 08:26:51 51°18.976 2°55.058 14.5704 0.005298 0.032416 -2.871232
2007-01-26 08:26:56 51°18.983 2°55.086 14.5695 0.005298 0.032417 -2.871232
2007-01-26 08:27:01 51°18.989 2°55.115 14.5311 0.005298 0.032417 -2.871232
2007-01-26 08:27:06 51°18.995 2°55.143 14.5526 0.005298 0.032417 -2.871232
2007-01-26 08:27:11 51°19.002 2°55.172 14.5562 0.005298 0.032417 -2.871232
2007-01-26 08:27:16 51°19.008 2°55.201 14.5668 0.005298 0.032417 -2.871232
2007-01-26 08:27:21 51°19.016 2°55.229 14.5801 0.005298 0.032417 -2.871232
2007-01-26 08:27:26 51°19.022 2°55.258 14.5556 0.005298 0.032416 -2.871232
2007-01-26 08:27:31 51°19.03 2°55.287 14.5845 0.005298 0.032415 -2.871232
2007-01-26 08:27:36 51°19.037 2°55.316 14.564 0.005298 0.032415 -2.871232
2007-01-26 08:27:41 51°19.045 2°55.344 14.5864 0.005298 0.032416 -2.871232
2007-01-26 08:27:46 51°19.052 2°55.374 14.5857 0.005298 0.032417 -2.871232
2007-01-26 08:27:51 51°19.059 2°55.403 14.566 0.005298 0.032418 -2.871232
2007-01-26 08:27:56 51°19.067 2°55.431 14.5852 0.005298 0.032419 -2.871232
2007-01-26 08:28:01 51°19.074 2°55.46 14.5673 0.005298 0.032419 -2.871232
2007-01-26 08:28:06 51°19.082 2°55.488 14.6024 0.005298 0.032419 -2.871232
2007-01-26 08:28:11 51°19.089 2°55.517 14.5592 0.005298 0.032419 -2.871232
2007-01-26 08:28:16 51°19.098 2°55.545 14.5947 0.005298 0.03242 -2.871232
2007-01-26 08:28:21 51°19.105 2°55.574 14.5995 0.005298 0.032421 -2.871232
2007-01-26 08:28:26 51°19.112 2°55.602 14.5926 0.005298 0.032421 -2.871232
2007-01-26 08:28:31 51°19.118 2°55.632 14.5872 0.005298 0.032421 -2.871232
2007-01-26 08:28:36 51°19.125 2°55.661 14.5806 0.005298 0.032421 -2.871232
2007-01-26 08:28:41 51°19.133 2°55.688 14.6031 0.005298 0.032421 -2.871232
2007-01-26 08:28:46 51°19.14 2°55.716 14.5937 0.005298 0.03242 -2.871232
2007-01-26 08:28:51 51°19.148 2°55.745 14.5858 0.005298 0.03242 -2.871232
2007-01-26 08:28:56 51°19.156 2°55.773 14.6105 0.005298 0.03242 -2.871232
2007-01-26 08:29:01 51°19.162 2°55.802 14.5797 0.005298 0.032419 -2.871232
2007-01-26 08:29:06 51°19.17 2°55.83 14.611 0.005298 0.032419 -2.871232
2007-01-26 08:29:11 51°19.177 2°55.859 14.5925 0.005298 0.032418 -2.871232
2007-01-26 08:29:16 51°19.185 2°55.887 14.6008 0.005298 0.032419 -2.871232
2007-01-26 08:29:21 51°19.191 2°55.916 14.5783 0.005298 0.032418 -2.871232
2007-01-26 08:29:26 51°19.199 2°55.944 14.6238 0.005298 0.032418 -2.871232
2007-01-26 08:29:31 51°19.206 2°55.973 14.6061 0.005298 0.032419 -2.871232
2007-01-26 08:29:36 51°19.212 2°56.002 14.5777 0.005298 0.032419 -2.871232
2007-01-26 08:29:41 51°19.221 2°56.03 14.6255 0.005298 0.03242 -2.871232
2007-01-26 08:29:46 51°19.227 2°56.058 14.6 0.005298 0.032421 -2.871232
2007-01-26 08:29:51 51°19.236 2°56.086 14.6047 0.005298 0.03242 -2.871232
2007-01-26 08:29:56 51°19.242 2°56.115 14.5824 0.005298 0.03242 -2.871232
2007-01-26 08:30:01 51°19.251 2°56.144 14.6307 0.005298 0.032421 -2.871232
2007-01-26 08:30:06 51°19.258 2°56.172 14.6028 0.005298 0.032421 -2.871232
2007-01-26 08:30:11 51°19.266 2°56.201 14.6236 0.005298 0.032421 -2.871232
2007-01-26 08:30:16 51°19.273 2°56.229 14.6224 0.005298 0.032422 -2.871232
2007-01-26 08:30:21 51°19.279 2°56.258 14.5944 0.005298 0.032422 -2.871232
2007-01-26 08:30:26 51°19.288 2°56.285 14.6322 0.005298 0.032423 -2.871232
2007-01-26 08:30:31 51°19.294 2°56.315 14.6062 0.005298 0.032423 -2.871232
2007-01-26 08:30:36 51°19.302 2°56.342 14.6263 0.005298 0.032423 -2.871232
2007-01-26 08:30:41 51°19.309 2°56.371 14.6329 0.005298 0.032422 -2.871232
2007-01-26 08:30:46 51°19.316 2°56.4 14.5963 0.005298 0.032422 -2.871232
2007-01-26 08:30:51 51°19.325 2°56.427 14.6432 0.005298 0.032423 -2.871232
2007-01-26 08:30:56 51°19.331 2°56.456 14.6152 0.005298 0.032423 -2.871232
2007-01-26 08:31:01 51°19.34 2°56.484 14.6353 0.005298 0.032424 -2.871232
2007-01-26 08:31:06 51°19.346 2°56.513 14.6378 0.005298 0.032424 -2.871232
2007-01-26 08:31:11 51°19.354 2°56.542 14.6495 0.005298 0.032423 -2.871232
2007-01-26 08:31:16 51°19.361 2°56.571 14.639 0.005298 0.032423 -2.871232
2007-01-26 08:31:21 51°19.368 2°56.6 14.631 0.005298 0.032423 -2.871232
2007-01-26 08:31:26 51°19.375 2°56.629 14.6402 0.005298 0.032423 -2.871232
2007-01-26 08:31:31 51°19.383 2°56.658 14.6484 0.005298 0.032424 -2.871232
2007-01-26 08:31:36 51°19.39 2°56.688 14.6461 0.005298 0.032424 -2.871232
2007-01-26 08:31:41 51°19.396 2°56.718 14.6318 0.005298 0.032424 -2.871232
2007-01-26 08:31:46 51°19.404 2°56.747 14.6459 0.005298 0.032424 -2.871232
2007-01-26 08:31:51 51°19.411 2°56.776 14.6369 0.005298 0.032424 -2.871232
2007-01-26 08:31:56 51°19.419 2°56.805 14.6378 0.005298 0.032425 -2.871232
2007-01-26 08:32:01 51°19.427 2°56.834 14.6558 0.005298 0.032425 -2.871232
2007-01-26 08:32:06 51°19.433 2°56.864 14.6333 0.005298 0.032425 -2.871232
2007-01-26 08:32:11 51°19.442 2°56.892 14.6587 0.005298 0.032423 -2.871232
2007-01-26 08:32:16 51°19.448 2°56.922 14.6223 0.005298 0.032422 -2.871232
2007-01-26 08:32:21 51°19.456 2°56.951 14.6583 0.005298 0.032422 -2.871232
2007-01-26 08:32:26 51°19.463 2°56.979 14.6542 0.005298 0.032422 -2.871232
2007-01-26 08:32:31 51°19.47 2°57.008 14.6327 0.005298 0.032423 -2.871232
2007-01-26 08:32:36 51°19.478 2°57.037 14.6576 0.005298 0.032423 -2.871232
2007-01-26 08:32:41 51°19.485 2°57.065 14.677 0.005298 0.032424 -2.871232
2007-01-26 08:32:46 51°19.491 2°57.095 14.6519 0.005298 0.032424 -2.871232
2007-01-26 08:32:51 51°19.498 2°57.124 14.6696 0.005298 0.032423 -2.871232
2007-01-26 08:32:56 51°19.504 2°57.153 14.6627 0.005298 0.032422 -2.871232
2007-01-26 08:33:01 51°19.511 2°57.182 14.6541 0.005298 0.032423 -2.871232
2007-01-26 08:33:06 51°19.518 2°57.212 14.6322 0.005298 0.032424 -2.871232
2007-01-26 08:33:11 51°19.526 2°57.241 14.6542 0.005298 0.032424 -2.871232
2007-01-26 08:33:16 51°19.534 2°57.27 14.6725 0.005298 0.032425 -2.871232
2007-01-26 08:33:21 51°19.541 2°57.299 14.6714 0.005298 0.032425 -2.871232
2007-01-26 08:33:26 51°19.547 2°57.329 14.6665 0.005298 0.032425 -2.871232
2007-01-26 08:33:31 51°19.555 2°57.357 14.6761 0.005298 0.032425 -2.871232
2007-01-26 08:33:36 51°19.56 2°57.388 14.6338 0.005298 0.032425 -2.871232
2007-01-26 08:33:41 51°19.569 2°57.416 14.6895 0.005298 0.032425 -2.871232
2007-01-26 08:33:46 51°19.575 2°57.445 14.659 0.005298 0.032424 -2.871232
2007-01-26 08:33:51 51°19.584 2°57.474 14.672 0.005298 0.032424 -2.871232
2007-01-26 08:33:56 51°19.591 2°57.503 14.6878 0.005298 0.032425 -2.871232
2007-01-26 08:34:01 51°19.599 2°57.531 14.6668 0.005298 0.032425 -2.871232
2007-01-26 08:34:06 51°19.607 2°57.56 14.6617 0.005298 0.032425 -2.871232
2007-01-26 08:34:11 51°19.616 2°57.588 14.6779 0.005298 0.032425 -2.871232
2007-01-26 08:34:16 51°19.624 2°57.616 14.6675 0.005298 0.032426 -2.871232
2007-01-26 08:34:21 51°19.632 2°57.645 14.6858 0.005298 0.032426 -2.871232
2007-01-26 08:34:26 51°19.64 2°57.673 14.6484 0.005298 0.032427 -2.871232
2007-01-26 08:34:31 51°19.648 2°57.702 14.6705 0.005298 0.032425 -2.871232
2007-01-26 08:34:36 51°19.656 2°57.729 14.6928 0.005298 0.032425 -2.871232
2007-01-26 08:34:41 51°19.662 2°57.759 14.649 0.005298 0.032425 -2.871232
2007-01-26 08:34:46 51°19.672 2°57.785 14.7097 0.005298 0.032425 -2.871232
2007-01-26 08:34:51 51°19.678 2°57.814 14.6626 0.005298 0.032425 -2.871232
2007-01-26 08:34:56 51°19.686 2°57.842 14.6921 0.005298 0.032425 -2.871232
2007-01-26 08:35:01 51°19.693 2°57.871 14.6731 0.005298 0.032425 -2.871232
2007-01-26 08:35:06 51°19.701 2°57.899 14.7123 0.005298 0.032425 -2.871232
2007-01-26 08:35:11 51°19.708 2°57.928 14.6776 0.005298 0.032425 -2.871232
2007-01-26 08:35:16 51°19.717 2°57.956 14.6973 0.005298 0.032425 -2.871232
2007-01-26 08:35:21 51°19.723 2°57.985 14.6723 0.005298 0.032425 -2.871232
2007-01-26 08:35:26 51°19.732 2°58.013 14.6956 0.005298 0.032425 -2.871232
2007-01-26 08:35:31 51°19.739 2°58.042 14.6968 0.005298 0.032425 -2.871232
2007-01-26 08:35:36 51°19.746 2°58.071 14.6906 0.005298 0.032425 -2.871232
2007-01-26 08:35:41 51°19.754 2°58.1 14.7242 0.005298 0.032425 -2.871232
2007-01-26 08:35:46 51°19.761 2°58.129 14.697 0.005298 0.032426 -2.871232
2007-01-26 08:35:51 51°19.769 2°58.157 14.7191 0.005298 0.032427 -2.871232
2007-01-26 08:35:56 51°19.776 2°58.186 14.6951 0.005298 0.032427 -2.871232
2007-01-26 08:36:01 51°19.783 2°58.215 14.7005 0.005298 0.032428 -2.871232
2007-01-26 08:36:06 51°19.79 2°58.244 14.8089 0.005298 0.032428 -2.871232
2007-01-26 08:36:11 51°19.797 2°58.272 14.7871 0.005298 0.032428 -2.871232
2007-01-26 08:36:16 51°19.805 2°58.301 14.7697 0.005298 0.032428 -2.871232
2007-01-26 08:36:21 51°19.813 2°58.328 14.7664 0.005298 0.032428 -2.871232
2007-01-26 08:36:26 51°19.821 2°58.357 14.7708 0.005298 0.032428 -2.871232
2007-01-26 08:36:31 51°19.829 2°58.385 14.7672 0.005298 0.032429 -2.871232
2007-01-26 08:36:36 51°19.837 2°58.414 14.7837 0.005298 0.032429 -2.871232
2007-01-26 08:36:41 51°19.845 2°58.443 14.8061 0.005298 0.032429 -2.871232
2007-01-26 08:36:46 51°19.852 2°58.471 14.7863 0.005298 0.032429 -2.871232
2007-01-26 08:36:51 51°19.86 2°58.5 14.7753 0.005298 0.032429 -2.871232
2007-01-26 08:36:56 51°19.868 2°58.529 14.7779 0.005298 0.03243 -2.871232
2007-01-26 08:37:01 51°19.876 2°58.557 14.7798 0.005298 0.03243 -2.871232
2007-01-26 08:37:06 51°19.885 2°58.585 14.7866 0.005298 0.03243 -2.871232
2007-01-26 08:37:11 51°19.893 2°58.613 14.7913 0.005298 0.03243 -2.871232
2007-01-26 08:37:16 51°19.9 2°58.643 14.7801 0.005298 0.03243 -2.871232
2007-01-26 08:37:21 51°19.909 2°58.671 14.8342 0.005298 0.03243 -2.871232
2007-01-26 08:37:26 51°19.914 2°58.701 14.7818 0.005298 0.03243 -2.871232
2007-01-26 08:37:31 51°19.923 2°58.729 14.7873 0.005298 0.032429 -2.871232
2007-01-26 08:37:36 51°19.929 2°58.759 14.7881 0.005298 0.032429 -2.871232
2007-01-26 08:37:41 51°19.938 2°58.787 14.8229 0.005298 0.03243 -2.871232
2007-01-26 08:37:46 51°19.946 2°58.816 14.8056 0.005298 0.032431 -2.871232
2007-01-26 08:37:51 51°19.953 2°58.844 14.8102 0.005298 0.032431 -2.871232
2007-01-26 08:37:56 51°19.96 2°58.873 14.8365 0.005298 0.032431 -2.871232
2007-01-26 08:38:01 51°19.968 2°58.901 14.8357 0.005298 0.032431 -2.871232
2007-01-26 08:38:06 51°19.976 2°58.929 14.8346 0.005298 0.032431 -2.871232
2007-01-26 08:38:11 51°19.983 2°58.959 14.8132 0.005298 0.032432 -2.871232
2007-01-26 08:38:16 51°19.992 2°58.986 14.8489 0.005298 0.032432 -2.871232
2007-01-26 08:38:21 51°19.998 2°59.015 14.8072 0.005298 0.032431 -2.871232
2007-01-26 08:38:26 51°20.006 2°59.044 14.8051 0.005298 0.032429 -2.871232
2007-01-26 08:38:31 51°20.014 2°59.073 14.8211 0.005298 0.032429 -2.871232
2007-01-26 08:38:36 51°20.021 2°59.102 14.8258 0.005298 0.032429 -2.871232
2007-01-26 08:38:41 51°20.029 2°59.13 14.8448 0.005298 0.032429 -2.871232
2007-01-26 08:38:46 51°20.036 2°59.158 14.8365 0.005298 0.03243 -2.871232
2007-01-26 08:38:51 51°20.042 2°59.187 14.8012 0.005298 0.03243 -2.871232
2007-01-26 08:38:56 51°20.05 2°59.216 14.8277 0.005298 0.032431 -2.871232
2007-01-26 08:39:01 51°20.057 2°59.245 14.8568 0.005298 0.032431 -2.871232
2007-01-26 08:39:06 51°20.063 2°59.273 14.8313 0.005298 0.032432 -2.871232
2007-01-26 08:39:11 51°20.07 2°59.302 14.8024 0.005298 0.032432 -2.871232
2007-01-26 08:39:16 51°20.079 2°59.33 14.8382 0.005298 0.032432 -2.871232
2007-01-26 08:39:21 51°20.087 2°59.358 14.8378 0.005298 0.032432 -2.871232
2007-01-26 08:39:26 51°20.096 2°59.385 14.8459 0.005298 0.032432 -2.871232
2007-01-26 08:39:31 51°20.103 2°59.412 14.8508 0.005298 0.032433 -2.871232
2007-01-26 08:39:36 51°20.111 2°59.439 14.8407 0.005298 0.032433 -2.871232
2007-01-26 08:39:41 51°20.118 2°59.467 14.8466 0.005298 0.032433 -2.871232
2007-01-26 08:39:46 51°20.126 2°59.493 14.8703 0.005298 0.032433 -2.871232
2007-01-26 08:39:51 51°20.131 2°59.522 14.8222 0.005298 0.032432 -2.871232
2007-01-26 08:39:56 51°20.141 2°59.547 14.8932 0.005298 0.032431 -2.871232
2007-01-26 08:40:01 51°20.146 2°59.576 14.8532 0.005298 0.032431 -2.871232
2007-01-26 08:40:06 51°20.154 2°59.603 14.8718 0.005298 0.032431 -2.871232
2007-01-26 08:40:11 51°20.16 2°59.631 14.911 0.005298 0.03243 -2.871232
2007-01-26 08:40:16 51°20.165 2°59.659 14.8771 0.005298 0.03243 -2.871232
2007-01-26 08:40:21 51°20.172 2°59.687 14.8856 0.005298 0.032431 -2.871232
2007-01-26 08:40:26 51°20.178 2°59.716 14.8776 0.005298 0.032432 -2.871232
2007-01-26 08:40:31 51°20.184 2°59.745 14.9003 0.005298 0.032432 -2.871232
2007-01-26 08:40:36 51°20.191 2°59.773 14.9062 0.005298 0.032433 -2.871232
2007-01-26 08:40:41 51°20.197 2°59.801 14.897 0.005298 0.032433 -2.871232
2007-01-26 08:40:46 51°20.203 2°59.83 14.857 0.005298 0.032433 -2.871232
2007-01-26 08:40:51 51°20.211 2°59.858 14.8632 0.005298 0.032433 -2.871232
2007-01-26 08:40:56 51°20.219 2°59.886 14.9018 0.005298 0.032434 -2.871232
2007-01-26 08:41:01 51°20.224 2°59.914 14.8921 0.005298 0.032434 -2.871232
2007-01-26 08:41:06 51°20.232 2°59.942 14.9018 0.005298 0.032434 -2.871232
2007-01-26 08:41:11 51°20.238 2°59.972 14.8884 0.005298 0.032433 -2.871232
2007-01-26 08:41:16 51°20.247 2°59.999 14.9143 0.005298 0.032433 -2.871232
2007-01-26 08:41:21 51°20.252 3°0.028 14.8804 0.005298 0.032434 -2.871232
2007-01-26 08:41:26 51°20.262 3°0.055 14.9424 0.005298 0.032433 -2.871232
2007-01-26 08:41:31 51°20.268 3°0.085 14.885 0.005298 0.032433 -2.871232
2007-01-26 08:41:36 51°20.276 3°0.113 14.9039 0.005298 0.032433 -2.871232
2007-01-26 08:41:41 51°20.282 3°0.142 14.9217 0.005298 0.032433 -2.871232
2007-01-26 08:41:46 51°20.289 3°0.171 14.9094 0.005298 0.032432 -2.871232
2007-01-26 08:41:51 51°20.295 3°0.2 14.8955 0.005298 0.032433 -2.871232
2007-01-26 08:41:56 51°20.304 3°0.228 14.914 0.005298 0.032433 -2.871232
2007-01-26 08:42:01 51°20.31 3°0.257 14.8892 0.005298 0.032433 -2.871232
2007-01-26 08:42:06 51°20.318 3°0.284 14.9144 0.005298 0.032433 -2.871232
2007-01-26 08:42:11 51°20.325 3°0.314 14.9036 0.005298 0.032433 -2.871232
2007-01-26 08:42:16 51°20.333 3°0.342 14.9291 0.005298 0.032433 -2.871232
2007-01-26 08:42:21 51°20.339 3°0.371 14.9059 0.005298 0.032434 -2.871232
2007-01-26 08:42:26 51°20.348 3°0.399 14.9408 0.005298 0.032434 -2.871232
2007-01-26 08:42:31 51°20.355 3°0.428 14.9545 0.005298 0.032435 -2.871232
2007-01-26 08:42:36 51°20.362 3°0.457 14.9317 0.005298 0.032435 -2.871232
2007-01-26 08:42:41 51°20.37 3°0.485 14.9427 0.005298 0.032435 -2.871232
2007-01-26 08:42:46 51°20.376 3°0.514 14.9261 0.005298 0.032435 -2.871232
2007-01-26 08:42:51 51°20.384 3°0.543 14.9454 0.005298 0.032435 -2.871232
2007-01-26 08:42:56 51°20.392 3°0.571 14.9497 0.005298 0.032436 -2.871232
2007-01-26 08:43:01 51°20.398 3°0.6 14.9357 0.005298 0.032436 -2.871232
2007-01-26 08:43:06 51°20.406 3°0.629 14.9463 0.005298 0.032436 -2.871232
2007-01-26 08:43:11 51°20.413 3°0.657 14.9657 0.005298 0.032436 -2.871232
2007-01-26 08:43:16 51°20.42 3°0.686 14.9453 0.005298 0.032436 -2.871232
2007-01-26 08:43:21 51°20.428 3°0.715 14.9545 0.005298 0.032436 -2.871232
2007-01-26 08:43:26 51°20.435 3°0.745 14.9229 0.005298 0.032436 -2.871232
2007-01-26 08:43:31 51°20.445 3°0.773 14.9942 0.005298 0.032436 -2.871232
2007-01-26 08:43:36 51°20.451 3°0.802 14.9428 0.005298 0.032436 -2.871232
2007-01-26 08:43:41 51°20.46 3°0.83 14.9709 0.005298 0.032436 -2.871232
2007-01-26 08:43:46 51°20.466 3°0.86 14.9562 0.005298 0.032436 -2.871232
2007-01-26 08:43:51 51°20.474 3°0.888 14.9615 0.005298 0.032437 -2.871232
2007-01-26 08:43:56 51°20.48 3°0.919 14.9344 0.005298 0.032436 -2.871232
2007-01-26 08:44:01 51°20.488 3°0.948 14.9896 0.005298 0.032434 -2.871232
2007-01-26 08:44:06 51°20.494 3°0.977 14.932 0.005298 0.032434 -2.871232
2007-01-26 08:44:11 51°20.502 3°1.007 14.9619 0.005298 0.032434 -2.871232
2007-01-26 08:44:16 51°20.51 3°1.036 15.0085 0.005298 0.032435 -2.871232
2007-01-26 08:44:21 51°20.516 3°1.065 15.0035 0.005298 0.032435 -2.871232
2007-01-26 08:44:26 51°20.523 3°1.094 14.993 0.005298 0.032435 -2.871232
2007-01-26 08:44:31 51°20.53 3°1.124 15.0109 0.005298 0.032436 -2.871232
2007-01-26 08:44:36 51°20.538 3°1.153 14.9913 0.005298 0.032436 -2.871232
2007-01-26 08:44:41 51°20.544 3°1.183 14.9789 0.005298 0.032436 -2.871232
2007-01-26 08:44:46 51°20.554 3°1.211 15.0092 0.005298 0.032437 -2.871232
2007-01-26 08:44:51 51°20.559 3°1.242 14.9533 0.005298 0.032437 -2.871232
2007-01-26 08:44:56 51°20.57 3°1.268 15.0342 0.005298 0.032437 -2.871232
2007-01-26 08:45:01 51°20.575 3°1.298 14.9835 0.005298 0.032436 -2.871232
2007-01-26 08:45:06 51°20.584 3°1.326 15.0162 0.005298 0.032436 -2.871232
2007-01-26 08:45:11 51°20.591 3°1.357 15.0091 0.005298 0.032435 -2.871232
2007-01-26 08:45:16 51°20.6 3°1.384 15.0414 0.005298 0.032435 -2.871232
2007-01-26 08:45:21 51°20.605 3°1.413 14.9666 0.005298 0.032436 -2.871232
2007-01-26 08:45:26 51°20.613 3°1.442 14.9975 0.005298 0.032436 -2.871232
2007-01-26 08:45:31 51°20.622 3°1.47 15.0698 0.005298 0.032437 -2.871232
2007-01-26 08:45:36 51°20.628 3°1.498 15.0195 0.005298 0.032437 -2.871232
2007-01-26 08:45:41 51°20.635 3°1.528 14.9891 0.005298 0.032437 -2.871232
2007-01-26 08:45:46 51°20.645 3°1.556 15.0654 0.005298 0.032438 -2.871232
2007-01-26 08:45:51 51°20.65 3°1.585 15.0266 0.005298 0.032438 -2.871232
2007-01-26 08:45:56 51°20.658 3°1.612 15.0204 0.005298 0.032438 -2.871232
2007-01-26 08:46:01 51°20.663 3°1.642 14.9939 0.005298 0.032439 -2.871232
2007-01-26 08:46:06 51°20.673 3°1.67 15.0756 0.005298 0.032438 -2.871232
2007-01-26 08:46:11 51°20.677 3°1.699 15.0386 0.005298 0.032438 -2.871232
2007-01-26 08:46:16 51°20.685 3°1.728 15.0285 0.005298 0.032437 -2.871232
2007-01-26 08:46:21 51°20.692 3°1.756 15.0534 0.005298 0.032437 -2.871232
2007-01-26 08:46:26 51°20.698 3°1.785 15.0122 0.005298 0.032437 -2.871232
2007-01-26 08:46:31 51°20.705 3°1.813 15.0481 0.005298 0.032437 -2.871232
2007-01-26 08:46:36 51°20.711 3°1.842 14.9995 0.005298 0.032437 -2.871232
2007-01-26 08:46:41 51°20.719 3°1.87 15.0852 0.005298 0.032436 -2.871232
2007-01-26 08:46:46 51°20.724 3°1.898 14.9839 0.005298 0.032435 -2.871232
2007-01-26 08:46:51 51°20.732 3°1.926 15.02 0.005298 0.032436 -2.871232
2007-01-26 08:46:56 51°20.738 3°1.954 15.0164 0.005298 0.032437 -2.871232
2007-01-26 08:47:01 51°20.746 3°1.981 15.0527 0.005298 0.032437 -2.871232
2007-01-26 08:47:06 51°20.752 3°2.009 15.0253 0.005298 0.032437 -2.871232
2007-01-26 08:47:11 51°20.759 3°2.037 15.016 0.005298 0.032438 -2.871232
2007-01-26 08:47:16 51°20.767 3°2.065 15.0781 0.005298 0.032437 -2.871232
2007-01-26 08:47:21 51°20.773 3°2.093 15.0944 0.005298 0.032437 -2.871232
2007-01-26 08:47:26 51°20.78 3°2.122 15.0588 0.005298 0.032438 -2.871232
2007-01-26 08:47:31 51°20.787 3°2.15 15.0942 0.005298 0.032438 -2.871232
2007-01-26 08:47:36 51°20.793 3°2.178 15.0702 0.005298 0.032439 -2.871232
2007-01-26 08:47:41 51°20.799 3°2.207 15.0586 0.005298 0.032439 -2.871232
2007-01-26 08:47:46 51°20.806 3°2.235 15.0483 0.005298 0.032439 -2.871232
2007-01-26 08:47:51 51°20.813 3°2.263 15.0741 0.005298 0.032439 -2.871232
2007-01-26 08:47:56 51°20.82 3°2.291 15.0584 0.005298 0.03244 -2.871232
2007-01-26 08:48:01 51°20.827 3°2.319 15.0494 0.005298 0.03244 -2.871232
2007-01-26 08:48:06 51°20.834 3°2.347 15.0702 0.005298 0.03244 -2.871232
2007-01-26 08:48:11 51°20.839 3°2.377 15.034 0.005298 0.03244 -2.871232
2007-01-26 08:48:16 51°20.849 3°2.404 14.9766 0.005298 0.03244 -2.871232
2007-01-26 08:48:21 51°20.855 3°2.432 14.8243 0.005298 0.03244 -2.871232
2007-01-26 08:48:26 51°20.861 3°2.461 14.6385 0.005298 0.03244 -2.871232
2007-01-26 08:48:31 51°20.868 3°2.49 14.8123 0.005298 0.03244 -2.871232
2007-01-26 08:48:36 51°20.874 3°2.518 14.6454 0.005298 0.03244 -2.871232
2007-01-26 08:48:41 51°20.882 3°2.546 14.8147 0.005298 0.032439 -2.871232
2007-01-26 08:48:46 51°20.888 3°2.574 14.6425 0.005298 0.032438 -2.871232
2007-01-26 08:48:51 51°20.897 3°2.601 14.9134 0.005298 0.032438 -2.871232
2007-01-26 08:48:56 51°20.904 3°2.63 14.8606 0.005298 0.032439 -2.871232
2007-01-26 08:49:01 51°20.912 3°2.658 14.9517 0.005298 0.032439 -2.871232
2007-01-26 08:49:06 51°20.919 3°2.686 14.8821 0.005298 0.032439 -2.871232
2007-01-26 08:49:11 51°20.926 3°2.715 14.8504 0.005298 0.032439 -2.871232
2007-01-26 08:49:16 51°20.934 3°2.742 14.8031 0.005298 0.03244 -2.871232
2007-01-26 08:49:21 51°20.942 3°2.771 14.8248 0.005298 0.03244 -2.871232
2007-01-26 08:49:26 51°20.95 3°2.798 15 0.005298 0.03244 -2.871232
2007-01-26 08:49:31 51°20.957 3°2.826 14.7362 0.005298 0.032441 -2.871232
2007-01-26 08:49:36 51°20.966 3°2.855 14.9577 0.005298 0.032441 -2.871232
2007-01-26 08:49:41 51°20.972 3°2.884 14.8647 0.005298 0.032441 -2.871232
2007-01-26 08:49:46 51°20.978 3°2.913 14.7162 0.005298 0.032441 -2.871232
2007-01-26 08:49:51 51°20.985 3°2.941 14.7181 0.005298 0.032441 -2.871232
2007-01-26 08:49:56 51°20.992 3°2.97 14.6564 0.005298 0.032441 -2.871232
2007-01-26 08:50:01 51°21.002 3°2.996 15.0907 0.005298 0.032441 -2.871232
2007-01-26 08:50:06 51°21.008 3°3.024 15.1393 0.005298 0.032441 -2.871232
2007-01-26 08:50:11 51°21.015 3°3.053 15.054 0.005298 0.032441 -2.871232
2007-01-26 08:50:16 51°21.022 3°3.08 15.0426 0.005298 0.032441 -2.871232
2007-01-26 08:50:21 51°21.028 3°3.109 14.9741 0.005298 0.032441 -2.871232
2007-01-26 08:50:26 51°21.037 3°3.136 15.0839 0.005298 0.032441 -2.871232
2007-01-26 08:50:31 51°21.042 3°3.165 14.8952 0.005298 0.032441 -2.871232
2007-01-26 08:50:36 51°21.052 3°3.192 15.1323 0.005298 0.032441 -2.871232
2007-01-26 08:50:41 51°21.058 3°3.22 15.0274 0.005298 0.03244 -2.871232
2007-01-26 08:50:46 51°21.066 3°3.247 15.0475 0.005298 0.032439 -2.871232
2007-01-26 08:50:51 51°21.074 3°3.276 15.0481 0.005298 0.032438 -2.871232
2007-01-26 08:50:56 51°21.081 3°3.303 15.049 0.005298 0.032438 -2.871232
2007-01-26 08:51:01 51°21.088 3°3.331 15.0241 0.005298 0.032439 -2.871232
2007-01-26 08:51:06 51°21.095 3°3.359 15.012 0.005298 0.032438 -2.871232
2007-01-26 08:51:11 51°21.102 3°3.387 15.0016 0.005298 0.032438 -2.871232
2007-01-26 08:51:16 51°21.109 3°3.415 15.0229 0.005298 0.032439 -2.871232
2007-01-26 08:51:21 51°21.117 3°3.443 15.0446 0.005298 0.032439 -2.871232
2007-01-26 08:51:26 51°21.124 3°3.471 15.0523 0.005298 0.032439 -2.871232
2007-01-26 08:51:31 51°21.132 3°3.498 15.101 0.005298 0.03244 -2.871232
2007-01-26 08:51:36 51°21.138 3°3.527 15.0142 0.005298 0.032439 -2.871232
2007-01-26 08:51:41 51°21.147 3°3.554 15.1189 0.005298 0.032439 -2.871232
2007-01-26 08:51:46 51°21.154 3°3.582 15.059 0.005298 0.032439 -2.871232
2007-01-26 08:51:51 51°21.162 3°3.61 15.1334 0.005298 0.03244 -2.871232
2007-01-26 08:51:56 51°21.168 3°3.638 15.0649 0.005298 0.03244 -2.871232
2007-01-26 08:52:01 51°21.175 3°3.666 15.0418 0.005298 0.032441 -2.871232
2007-01-26 08:52:06 51°21.183 3°3.694 15.135 0.005298 0.032441 -2.871232
2007-01-26 08:52:11 51°21.189 3°3.723 15.0719 0.005298 0.032441 -2.871232
2007-01-26 08:52:16 51°21.197 3°3.751 15.1427 0.005298 0.032442 -2.871232
2007-01-26 08:52:21 51°21.203 3°3.781 15.0713 0.005298 0.032442 -2.871232
2007-01-26 08:52:26 51°21.211 3°3.808 15.1805 0.005298 0.032442 -2.871232
2007-01-26 08:52:31 51°21.216 3°3.838 15.0288 0.005298 0.032442 -2.871232
2007-01-26 08:52:36 51°21.224 3°3.866 15.1474 0.005298 0.032441 -2.871232
2007-01-26 08:52:41 51°21.229 3°3.896 15.0601 0.005298 0.032441 -2.871232
2007-01-26 08:52:46 51°21.235 3°3.924 15.0691 0.005298 0.032441 -2.871232
2007-01-26 08:52:51 51°21.243 3°3.953 15.0778 0.005298 0.032441 -2.871232
2007-01-26 08:52:56 51°21.25 3°3.981 15.0528 0.005298 0.032442 -2.871232
2007-01-26 08:53:01 51°21.257 3°4.009 15.0489 0.005298 0.032442 -2.871232
2007-01-26 08:53:06 51°21.265 3°4.036 15.1601 0.005298 0.032443 -2.871232
2007-01-26 08:53:11 51°21.272 3°4.064 15.0814 0.005298 0.032443 -2.871232
2007-01-26 08:53:16 51°21.28 3°4.092 15.1111 0.005298 0.032443 -2.871232
2007-01-26 08:53:21 51°21.286 3°4.12 15.0772 0.005298 0.032443 -2.871232
2007-01-26 08:53:26 51°21.294 3°4.148 15.0721 0.005298 0.032443 -2.871232
2007-01-26 08:53:31 51°21.3 3°4.176 15.0844 0.005298 0.032443 -2.871232
2007-01-26 08:53:36 51°21.306 3°4.204 15.0941 0.005298 0.032443 -2.871232
2007-01-26 08:53:41 51°21.313 3°4.232 15.1654 0.005298 0.032443 -2.871232
2007-01-26 08:53:46 51°21.319 3°4.26 15.0291 0.005298 0.032443 -2.871232
2007-01-26 08:53:51 51°21.326 3°4.289 15.0246 0.005298 0.032444 -2.871232
2007-01-26 08:53:56 51°21.333 3°4.316 15.0804 0.005298 0.032444 -2.871232
2007-01-26 08:54:01 51°21.339 3°4.345 15.0441 0.005298 0.032444 -2.871232
2007-01-26 08:54:06 51°21.347 3°4.372 15.1583 0.005298 0.032444 -2.871232
2007-01-26 08:54:11 51°21.353 3°4.401 15.072 0.005298 0.032444 -2.871232
2007-01-26 08:54:16 51°21.362 3°4.429 15.1433 0.005298 0.032444 -2.871232
2007-01-26 08:54:21 51°21.369 3°4.457 15.1055 0.005298 0.032444 -2.871232
2007-01-26 08:54:26 51°21.376 3°4.485 15.0811 0.005298 0.032444 -2.871232
2007-01-26 08:54:31 51°21.384 3°4.512 15.1219 0.005298 0.032444 -2.871232
2007-01-26 08:54:36 51°21.392 3°4.54 15.0819 0.005298 0.032444 -2.871232
2007-01-26 08:54:41 51°21.4 3°4.568 15.1372 0.005298 0.032444 -2.871232
2007-01-26 08:54:46 51°21.408 3°4.596 15.1543 0.005298 0.032444 -2.871232
2007-01-26 08:54:51 51°21.415 3°4.623 15.1438 0.005298 0.032444 -2.871232
2007-01-26 08:54:56 51°21.421 3°4.651 15.1085 0.005298 0.032444 -2.871232
2007-01-26 08:55:01 51°21.429 3°4.678 15.2035 0.005298 0.032444 -2.871232
2007-01-26 08:55:06 51°21.436 3°4.706 15.1457 0.005298 0.032444 -2.871232
2007-01-26 08:55:11 51°21.444 3°4.733 15.2253 0.005298 0.032444 -2.871232
2007-01-26 08:55:16 51°21.45 3°4.761 15.2024 0.005298 0.032444 -2.871232
2007-01-26 08:55:21 51°21.456 3°4.789 15.104 0.005298 0.032445 -2.871232
2007-01-26 08:55:26 51°21.464 3°4.818 15.1408 0.005298 0.032445 -2.871232
2007-01-26 08:55:31 51°21.472 3°4.845 15.2311 0.005298 0.032445 -2.871232
2007-01-26 08:55:36 51°21.478 3°4.874 15.0855 0.005298 0.032445 -2.871232
2007-01-26 08:55:41 51°21.486 3°4.901 15.1724 0.005298 0.032445 -2.871232
2007-01-26 08:55:46 51°21.492 3°4.93 15.1213 0.005298 0.032445 -2.871232
2007-01-26 08:55:51 51°21.501 3°4.958 15.2216 0.005298 0.032444 -2.871232
2007-01-26 08:55:56 51°21.507 3°4.987 15.1714 0.005298 0.032445 -2.871232
2007-01-26 08:56:01 51°21.513 3°5.016 15.1536 0.005298 0.032445 -2.871232
2007-01-26 08:56:06 51°21.52 3°5.044 15.1662 0.005298 0.032445 -2.871232
2007-01-26 08:56:11 51°21.526 3°5.074 15.1006 0.005298 0.032445 -2.871232
2007-01-26 08:56:16 51°21.534 3°5.103 15.2137 0.005298 0.032445 -2.871232
2007-01-26 08:56:21 51°21.54 3°5.131 15.2037 0.005298 0.032444 -2.871232
2007-01-26 08:56:26 51°21.547 3°5.159 15.1445 0.005298 0.032443 -2.871232
2007-01-26 08:56:31 51°21.554 3°5.187 15.1305 0.005298 0.032443 -2.871232
2007-01-26 08:56:36 51°21.562 3°5.216 15.1481 0.005298 0.032442 -2.871232
2007-01-26 08:56:41 51°21.57 3°5.243 15.2424 0.005298 0.032442 -2.871232
2007-01-26 08:56:46 51°21.576 3°5.271 15.1227 0.005298 0.032443 -2.871232
2007-01-26 08:56:51 51°21.584 3°5.298 15.2112 0.005298 0.032443 -2.871232
2007-01-26 08:56:56 51°21.59 3°5.327 15.0882 0.005298 0.032444 -2.871232
2007-01-26 08:57:01 51°21.6 3°5.353 15.2775 0.005298 0.032444 -2.871232
2007-01-26 08:57:06 51°21.605 3°5.382 15.1445 0.005298 0.032444 -2.871232
2007-01-26 08:57:11 51°21.612 3°5.41 15.1584 0.005298 0.032444 -2.871232
2007-01-26 08:57:16 51°21.62 3°5.438 15.1828 0.005298 0.032443 -2.871232
2007-01-26 08:57:21 51°21.626 3°5.466 15.1741 0.005298 0.032443 -2.871232
2007-01-26 08:57:26 51°21.634 3°5.495 15.1759 0.005298 0.032444 -2.871232
2007-01-26 08:57:31 51°21.641 3°5.523 15.1905 0.005298 0.032444 -2.871232
2007-01-26 08:57:36 51°21.649 3°5.551 15.2452 0.005298 0.032444 -2.871232
2007-01-26 08:57:41 51°21.655 3°5.579 15.244 0.005298 0.032445 -2.871232
2007-01-26 08:57:46 51°21.662 3°5.607 14.7044 0.005298 0.032445 -2.871232
2007-01-26 08:57:51 51°21.67 3°5.635 14.6958 0.005298 0.032445 -2.871232
2007-01-26 08:57:56 51°21.676 3°5.663 14.5503 0.005298 0.032446 -2.871232
2007-01-26 08:58:01 51°21.684 3°5.691 14.7262 0.005298 0.032446 -2.871232
2007-01-26 08:58:06 51°21.69 3°5.718 14.8311 0.005298 0.032446 -2.871232
2007-01-26 08:58:11 51°21.696 3°5.747 14.4852 0.005298 0.032446 -2.871232
2007-01-26 08:58:16 51°21.703 3°5.775 14.6743 0.005298 0.032446 -2.871232
2007-01-26 08:58:21 51°21.71 3°5.802 14.8076 0.005298 0.032446 -2.871232
2007-01-26 08:58:26 51°21.716 3°5.83 14.8706 0.005298 0.032446 -2.871232
2007-01-26 08:58:31 51°21.723 3°5.858 15.0546 0.005298 0.032446 -2.871232
2007-01-26 08:58:36 51°21.728 3°5.886 14.6892 0.005298 0.032446 -2.871232
2007-01-26 08:58:41 51°21.734 3°5.915 14.5987 0.005298 0.032446 -2.871232
2007-01-26 08:58:46 51°21.742 3°5.943 14.7843 0.005298 0.032446 -2.871232
2007-01-26 08:58:51 51°21.748 3°5.97 14.9511 0.005298 0.032446 -2.871232
2007-01-26 08:58:56 51°21.755 3°5.998 14.7859 0.005298 0.032447 -2.871232
2007-01-26 08:59:01 51°21.762 3°6.025 14.9316 0.005298 0.032447 -2.871232
2007-01-26 08:59:06 51°21.768 3°6.053 14.8564 0.005298 0.032447 -2.871232
2007-01-26 08:59:11 51°21.774 3°6.081 14.9211 0.005298 0.032447 -2.871232
2007-01-26 08:59:16 51°21.779 3°6.109 14.7227 0.005298 0.032447 -2.871232
2007-01-26 08:59:21 51°21.787 3°6.136 14.9977 0.005298 0.032446 -2.871232
2007-01-26 08:59:26 51°21.793 3°6.164 14.8096 0.005298 0.032446 -2.871232
2007-01-26 08:59:31 51°21.799 3°6.193 15.0004 0.005298 0.032446 -2.871232
2007-01-26 08:59:36 51°21.804 3°6.221 14.9246 0.005298 0.032446 -2.871232
2007-01-26 08:59:41 51°21.809 3°6.249 14.5414 0.005298 0.032446 -2.871232
2007-01-26 08:59:46 51°21.816 3°6.277 14.9 0.005298 0.032446 -2.871232
2007-01-26 08:59:51 51°21.822 3°6.305 14.8773 0.005298 0.032445 -2.871232
2007-01-26 08:59:56 51°21.828 3°6.333 14.5498 0.005298 0.032445 -2.871232
2007-01-26 09:00:01 51°21.836 3°6.36 15.0597 0.005298 0.032446 -2.871232
2007-01-26 09:00:06 51°21.84 3°6.388 14.6049 0.005298 0.032446 -2.871232
2007-01-26 09:00:11 51°21.847 3°6.416 14.925 0.005298 0.032446 -2.871232
2007-01-26 09:00:16 51°21.853 3°6.443 15.0285 0.005298 0.032445 -2.871232
2007-01-26 09:00:21 51°21.857 3°6.472 14.8691 0.005298 0.032445 -2.871232
2007-01-26 09:00:26 51°21.861 3°6.5 15.0641 0.005298 0.032444 -2.871232
2007-01-26 09:00:31 51°21.864 3°6.53 14.6477 0.005298 0.032444 -2.871232
2007-01-26 09:00:36 51°21.868 3°6.558 15.0362 0.005298 0.032444 -2.871232
2007-01-26 09:00:41 51°21.87 3°6.588 14.9069 0.005298 0.032445 -2.871232
2007-01-26 09:00:46 51°21.873 3°6.616 15.0114 0.005298 0.032446 -2.871232
2007-01-26 09:00:51 51°21.873 3°6.645 14.5118 0.005298 0.032446 -2.871232
2007-01-26 09:00:56 51°21.877 3°6.674 15.0226 0.005298 0.032446 -2.871232
2007-01-26 09:01:01 51°21.877 3°6.703 14.7516 0.005298 0.032447 -2.871232
2007-01-26 09:01:06 51°21.88 3°6.732 14.8353 0.005298 0.032447 -2.871232
2007-01-26 09:01:11 51°21.882 3°6.76 14.9598 0.005298 0.032446 -2.871232
2007-01-26 09:01:16 51°21.882 3°6.789 14.6917 0.005298 0.032446 -2.871232
2007-01-26 09:01:21 51°21.886 3°6.819 14.7866 0.005298 0.032446 -2.871232
2007-01-26 09:01:26 51°21.888 3°6.848 15.0731 0.005298 0.032445 -2.871232
2007-01-26 09:01:31 51°21.888 3°6.876 14.614 0.005298 0.032446 -2.871232
2007-01-26 09:01:36 51°21.892 3°6.905 15.0315 0.005298 0.032446 -2.871232
2007-01-26 09:01:41 51°21.892 3°6.934 14.408 0.005298 0.032445 -2.871232
2007-01-26 09:01:46 51°21.896 3°6.963 14.9537 0.005298 0.032445 -2.871232
2007-01-26 09:01:51 51°21.898 3°6.992 14.5969 0.005298 0.032445 -2.871232
2007-01-26 09:01:56 51°21.903 3°7.021 14.8231 0.005298 0.032446 -2.871232
2007-01-26 09:02:01 51°21.906 3°7.05 15.0666 0.005298 0.032447 -2.871232
2007-01-26 09:02:06 51°21.908 3°7.079 14.825 0.005298 0.032447 -2.871232
2007-01-26 09:02:11 51°21.912 3°7.109 14.9428 0.005298 0.032447 -2.871232
2007-01-26 09:02:16 51°21.914 3°7.138 15.002 0.005298 0.032448 -2.871232
2007-01-26 09:02:21 51°21.916 3°7.167 14.8201 0.005298 0.032447 -2.871232
2007-01-26 09:02:26 51°21.917 3°7.198 14.3666 0.005298 0.032447 -2.871232
2007-01-26 09:02:31 51°21.923 3°7.227 15.0768 0.005298 0.032447 -2.871232
2007-01-26 09:02:36 51°21.922 3°7.257 14.5522 0.005298 0.032447 -2.871232
2007-01-26 09:02:41 51°21.926 3°7.287 14.8959 0.005298 0.032447 -2.871232
2007-01-26 09:02:46 51°21.927 3°7.318 14.6301 0.005298 0.032446 -2.871232
2007-01-26 09:02:51 51°21.931 3°7.348 15.0282 0.005298 0.032446 -2.871232
2007-01-26 09:02:56 51°21.932 3°7.379 14.7307 0.005298 0.032447 -2.871232
2007-01-26 09:03:01 51°21.936 3°7.408 14.9718 0.005298 0.032446 -2.871232
2007-01-26 09:03:06 51°21.938 3°7.439 14.4598 0.005298 0.032446 -2.871232
2007-01-26 09:03:11 51°21.944 3°7.468 14.9484 0.005298 0.032446 -2.871232
2007-01-26 09:03:16 51°21.946 3°7.498 14.7762 0.005298 0.032447 -2.871232
2007-01-26 09:03:21 51°21.95 3°7.528 14.8062 0.005298 0.032448 -2.871232
2007-01-26 09:03:26 51°21.954 3°7.557 14.9624 0.005298 0.032448 -2.871232
2007-01-26 09:03:31 51°21.957 3°7.587 14.6894 0.005298 0.032448 -2.871232
2007-01-26 09:03:36 51°21.962 3°7.615 15.015 0.005298 0.032448 -2.871232
2007-01-26 09:03:41 51°21.964 3°7.645 14.6175 0.005298 0.032448 -2.871232
2007-01-26 09:03:46 51°21.969 3°7.673 14.9906 0.005298 0.032449 -2.871232
2007-01-26 09:03:51 51°21.97 3°7.702 14.4602 0.005298 0.032449 -2.871232
2007-01-26 09:03:56 51°21.976 3°7.731 14.9741 0.005298 0.032448 -2.871232
2007-01-26 09:04:01 51°21.979 3°7.76 14.9084 0.005298 0.032449 -2.871232
2007-01-26 09:04:06 51°21.981 3°7.789 14.8488 0.005298 0.032449 -2.871232
2007-01-26 09:04:11 51°21.985 3°7.819 14.9196 0.005298 0.032449 -2.871232
2007-01-26 09:04:16 51°21.986 3°7.848 14.5874 0.005298 0.032448 -2.871232
2007-01-26 09:04:21 51°21.99 3°7.877 14.9052 0.005298 0.032447 -2.871232
2007-01-26 09:04:26 51°21.992 3°7.907 14.567 0.005298 0.032446 -2.871232
2007-01-26 09:04:31 51°21.996 3°7.936 14.9675 0.005298 0.032447 -2.871232
2007-01-26 09:04:36 51°21.998 3°7.965 14.6296 0.005298 0.032447 -2.871232
2007-01-26 09:04:41 51°22.002 3°7.994 14.8162 0.005298 0.032447 -2.871232
2007-01-26 09:04:46 51°22.006 3°8.023 14.6898 0.005298 0.032448 -2.871232
2007-01-26 09:04:51 51°22.01 3°8.051 14.8919 0.005298 0.032448 -2.871232
2007-01-26 09:04:56 51°22.014 3°8.08 14.8786 0.005298 0.032448 -2.871232
2007-01-26 09:05:01 51°22.017 3°8.109 14.7009 0.005298 0.032449 -2.871232
2007-01-26 09:05:06 51°22.021 3°8.138 14.853 0.005298 0.032449 -2.871232
2007-01-26 09:05:11 51°22.024 3°8.168 14.8391 0.005298 0.032449 -2.871232
2007-01-26 09:05:16 51°22.027 3°8.197 14.9431 0.005298 0.032449 -2.871232
2007-01-26 09:05:21 51°22.03 3°8.226 14.6075 0.005298 0.032449 -2.871232
2007-01-26 09:05:26 51°22.034 3°8.256 14.7293 0.005298 0.03245 -2.871232
2007-01-26 09:05:31 51°22.039 3°8.285 14.9043 0.005298 0.03245 -2.871232
2007-01-26 09:05:36 51°22.041 3°8.314 14.7505 0.005298 0.03245 -2.871232
2007-01-26 09:05:41 51°22.045 3°8.342 14.981 0.005298 0.03245 -2.871232
2007-01-26 09:05:46 51°22.047 3°8.371 14.7419 0.005298 0.03245 -2.871232
2007-01-26 09:05:51 51°22.049 3°8.4 14.5993 0.005298 0.03245 -2.871232
2007-01-26 09:05:56 51°22.053 3°8.429 14.9677 0.005298 0.03245 -2.871232
2007-01-26 09:06:01 51°22.055 3°8.458 14.6417 0.005298 0.03245 -2.871232
2007-01-26 09:06:06 51°22.059 3°8.487 14.8215 0.005298 0.03245 -2.871232
2007-01-26 09:06:11 51°22.062 3°8.515 14.7956 0.005298 0.03245 -2.871232
2007-01-26 09:06:16 51°22.065 3°8.544 14.8312 0.005298 0.03245 -2.871232
2007-01-26 09:06:21 51°22.067 3°8.574 14.782 0.005298 0.03245 -2.871232
2007-01-26 09:06:26 51°22.07 3°8.602 14.9822 0.005298 0.03245 -2.871232
2007-01-26 09:06:31 51°22.071 3°8.631 14.7042 0.005298 0.032451 -2.871232
2007-01-26 09:06:36 51°22.074 3°8.661 14.7336 0.005298 0.032451 -2.871232
2007-01-26 09:06:41 51°22.076 3°8.691 14.6988 0.005298 0.032451 -2.871232
2007-01-26 09:06:46 51°22.081 3°8.719 15.0353 0.005298 0.032451 -2.871232
2007-01-26 09:06:51 51°22.081 3°8.747 14.7433 0.005298 0.032451 -2.871232
2007-01-26 09:06:56 51°22.085 3°8.772 15.0371 0.005298 0.032449 -2.871232
2007-01-26 09:07:01 51°22.086 3°8.799 14.5652 0.005298 0.032449 -2.871232
2007-01-26 09:07:06 51°22.091 3°8.823 15.0313 0.005298 0.032449 -2.871232
2007-01-26 09:07:11 51°22.092 3°8.847 14.9519 0.005298 0.032449 -2.871232
2007-01-26 09:07:16 51°22.093 3°8.87 15.0258 0.005298 0.03245 -2.871232
2007-01-26 09:07:21 51°22.09 3°8.891 15.1324 0.005298 0.03245 -2.871232
2007-01-26 09:07:26 51°22.084 3°8.909 14.9637 0.005298 0.03245 -2.871232
2007-01-26 09:07:31 51°22.078 3°8.925 15.0984 0.005298 0.032449 -2.871232
2007-01-26 09:07:36 51°22.069 3°8.937 15.0213 0.005298 0.032449 -2.871232
2007-01-26 09:07:41 51°22.06 3°8.946 15.1285 0.005298 0.032449 -2.871232
2007-01-26 09:07:46 51°22.05 3°8.951 14.9952 0.005298 0.032448 -2.871232
2007-01-26 09:07:51 51°22.04 3°8.955 15.054 0.005298 0.032448 -2.871232
2007-01-26 09:07:56 51°22.03 3°8.955 14.9563 0.005298 0.032447 -2.871232
2007-01-26 09:08:01 51°22.02 3°8.954 15.0017 0.005298 0.032449 -2.871232
2007-01-26 09:08:06 51°22.011 3°8.949 15.0376 0.005298 0.032449 -2.871232
2007-01-26 09:08:11 51°22.002 3°8.942 15.0345 0.005298 0.032449 -2.871232
2007-01-26 09:08:16 51°21.995 3°8.933 14.8578 0.005298 0.032449 -2.871232
2007-01-26 09:08:21 51°21.987 3°8.924 14.7916 0.005298 0.032449 -2.871232
2007-01-26 09:08:26 51°21.979 3°8.913 14.6476 0.005298 0.032449 -2.871232
2007-01-26 09:08:31 51°21.972 3°8.902 14.8441 0.005298 0.03245 -2.871232
2007-01-26 09:08:36 51°21.965 3°8.891 14.6013 0.005298 0.03245 -2.871232
2007-01-26 09:08:41 51°21.957 3°8.881 14.7715 0.005298 0.03245 -2.871232
2007-01-26 09:08:46 51°21.949 3°8.872 14.7316 0.005298 0.03245 -2.871232
2007-01-26 09:08:51 51°21.941 3°8.863 14.6459 0.005298 0.03245 -2.871232
2007-01-26 09:08:56 51°21.932 3°8.856 14.8337 0.005298 0.03245 -2.871232
2007-01-26 09:09:01 51°21.924 3°8.848 14.7258 0.005298 0.03245 -2.871232
2007-01-26 09:09:06 51°21.915 3°8.841 14.9168 0.005298 0.03245 -2.871232
2007-01-26 09:09:11 51°21.906 3°8.835 14.9001 0.005298 0.03245 -2.871232
2007-01-26 09:09:16 51°21.897 3°8.828 14.8419 0.005298 0.03245 -2.871232